Sigfox identifier Datetime Temperature Humidity SNR
003C3CC8 2019-04-12 12:31:10 23.5 20 24.6
003C3CC8 2019-04-12 11:59:54 23.4 20 24.7
003C3CC8 2019-04-12 11:28:39 23.4 20 24.7
003C3CC8 2019-04-12 10:57:24 23.4 20 24.7
003C3CC8 2019-04-12 10:26:08 23.4 20 24.7
003C3CC8 2019-04-12 09:54:54 23.3 19 24.6
003C3CC8 2019-04-12 09:23:40 23.3 19 24.6
003C3CC8 2019-04-12 08:52:25 23.3 19 24.6
003C3CC8 2019-04-12 08:21:10 23.4 19 24.7
003C3CC8 2019-04-12 07:49:56 23.3 19 24.5
003C3CC8 2019-04-12 07:18:39 23.4 19 24.5
003C3CC8 2019-04-12 06:47:24 23.4 19 24.5
003C3CC8 2019-04-12 06:16:08 23.4 19 24.5
003C3CC8 2019-04-12 05:44:53 23.4 19 24.5
003C3CC8 2019-04-12 05:13:40 23.4 19 24.4
003C3CC8 2019-04-12 04:42:25 23.4 19 24.4
003C3CC8 2019-04-12 04:10:38 23.5 19 24.5
003C3CC8 2019-04-12 03:39:23 23.5 19 24.6
003C3CC8 2019-04-12 03:08:10 23.6 19 24
003C3CC8 2019-04-12 02:36:55 23.6 20 24
003C3CC8 2019-04-12 02:05:41 23.6 20 24
003C3CC8 2019-04-12 01:34:27 23.6 20 24
003C3CC8 2019-04-12 01:03:14 23.5 20 24.1
003C3CC8 2019-04-12 00:32:00 23.5 19 24.1
003C3CC8 2019-04-12 00:00:47 23.5 20 24.1
003C3CC8 2019-04-11 23:29:34 23.4 20 24
003C3CC8 2019-04-11 22:58:20 23.4 20 24
003C3CC8 2019-04-11 22:27:07 23.4 20 24.1
003C3CC8 2019-04-11 21:55:53 23.3 20 24.1
003C3CC8 2019-04-11 21:24:39 23.3 20 24
003C3CC8 2019-04-11 20:53:25 23.2 20 24.1
003C3CC8 2019-04-11 20:22:11 23.2 20 24.1
003C3CC8 2019-04-11 19:50:57 23.2 21 23.9
003C3CC8 2019-04-11 19:19:43 23.1 21 23.9
003C3CC8 2019-04-11 18:48:30 23.1 21 24
003C3CC8 2019-04-11 18:17:16 23.1 21 24
003C3CC8 2019-04-11 17:46:03 23.1 21 24.4
003C3CC8 2019-04-11 17:14:48 23.1 21 24.5
003C3CC8 2019-04-11 16:43:34 23.1 21 24.5
003C3CC8 2019-04-11 16:12:18 23.1 21 24.5
003C3CC8 2019-04-11 15:41:02 23.1 21 24.5
003C3CC8 2019-04-11 15:09:47 23.1 22 24.6
003C3CC8 2019-04-11 14:38:31 23.1 22 24.4
003C3CC8 2019-04-11 14:07:16 23.1 22 24.6
003C3CC8 2019-04-11 13:36:01 23.2 22 25
003C3CC8 2019-04-11 13:04:47 23.2 22 25
003C3CC8 2019-04-11 12:33:32 23.2 22 24.9
003C3CC8 2019-04-11 12:02:18 23.3 22 24.9
003C3CC8 2019-04-11 11:31:04 23.3 22 24.8
003C3CC8 2019-04-11 10:59:50 23.3 22 24.8
003C3CC8 2019-04-11 10:28:35 23.3 22 24.7
003C3CC8 2019-04-11 09:57:22 23.3 22 24.7
003C3CC8 2019-04-11 09:26:07 23.2 22 24.6
003C3CC8 2019-04-11 08:54:52 23.2 22 24.6
003C3CC8 2019-04-11 08:23:38 23.2 22 24.7
003C3CC8 2019-04-11 07:52:24 23.3 21 24.7
003C3CC8 2019-04-11 07:21:09 23.3 22 24.8
003C3CC8 2019-04-11 06:49:54 23.3 22 24.8
003C3CC8 2019-04-11 06:18:41 23.3 22 24.9
003C3CC8 2019-04-11 05:47:27 23.3 22 25.1
003C3CC8 2019-04-11 05:16:13 23.3 22 24.7
003C3CC8 2019-04-11 04:44:58 23.4 22 24.6
003C3CC8 2019-04-11 04:13:44 23.4 22 24.7
003C3CC8 2019-04-11 03:42:31 23.4 21 24.8
003C3CC8 2019-04-11 03:11:17 23.4 21 24.8
003C3CC8 2019-04-11 02:40:03 23.4 21 24.8
003C3CC8 2019-04-11 02:08:17 23.4 21 24.7
003C3CC8 2019-04-11 01:37:03 23.4 21 24.3
003C3CC8 2019-04-11 01:05:48 23.4 21 24.4
003C3CC8 2019-04-11 00:34:35 23.4 21 24.3
003C3CC8 2019-04-11 00:03:22 23.4 21 24.5
003C3CC8 2019-04-10 23:32:08 23.3 21 24.4
003C3CC8 2019-04-10 23:00:53 23.3 21 24.4
003C3CC8 2019-04-10 22:29:37 23.2 21 24.5
003C3CC8 2019-04-10 21:58:22 23.2 22 24.4
003C3CC8 2019-04-10 21:27:08 23.1 22 24.4
003C3CC8 2019-04-10 20:55:55 23.1 22 24.4
003C3CC8 2019-04-10 20:24:39 23.1 22 24.6
003C3CC8 2019-04-10 19:53:24 23 22 24.5
003C3CC8 2019-04-10 19:22:10 23 22 24.4
003C3CC8 2019-04-10 18:50:56 23 23 24.4
003C3CC8 2019-04-10 18:19:41 23 23 24.4
003C3CC8 2019-04-10 17:48:26 23 24 24.3
003C3CC8 2019-04-10 17:17:12 23 24 24.3
003C3CC8 2019-04-10 16:45:56 23 24 24.3
003C3CC8 2019-04-10 16:14:42 23 24 24.2
003C3CC8 2019-04-10 15:43:27 23 24 24.2
003C3CC8 2019-04-10 15:12:12 23 24 24.2
003C3CC8 2019-04-10 14:40:57 23 24 24.1
003C3CC8 2019-04-10 14:09:45 23 24 24.1
003C3CC8 2019-04-10 13:38:28 23.1 25 24
003C3CC8 2019-04-10 13:07:13 23.1 25 24
003C3CC8 2019-04-10 12:35:58 23.1 25 23.9
003C3CC8 2019-04-10 12:04:44 23.1 25 23.9
003C3CC8 2019-04-10 11:33:29 23.2 25 23.9
003C3CC8 2019-04-10 11:02:15 23.2 26 23.8
003C3CC8 2019-04-10 10:31:02 23.2 26 23.8
003C3CC8 2019-04-10 09:59:47 23.2 26 23.8
003C3CC8 2019-04-10 09:28:32 23.1 26 23.9
003C3CC8 2019-04-10 08:57:17 23.1 26 23.9
003C3CC8 2019-04-10 08:26:03 23.1 26 23.9
003C3CC8 2019-04-10 07:54:48 23.1 26 23.9
003C3CC8 2019-04-10 07:23:32 23.2 27 23.9
003C3CC8 2019-04-10 06:52:17 23.2 27 24
003C3CC8 2019-04-10 06:21:02 23.2 27 24.1
003C3CC8 2019-04-10 05:49:48 23.3 28 24
003C3CC8 2019-04-10 05:18:33 23.3 28 23.9
003C3CC8 2019-04-10 04:47:18 23.4 28 23.9
003C3CC8 2019-04-10 04:16:04 23.5 28 23.8
003C3CC8 2019-04-10 03:44:49 23.5 28 23.7
003C3CC8 2019-04-10 03:13:34 23.6 28 23.8
003C3CC8 2019-04-10 02:42:21 23.7 29 23.8
003C3CC8 2019-04-10 02:11:05 23.8 29 23.8
003C3CC8 2019-04-10 01:39:51 23.8 29 24
003C3CC8 2019-04-10 01:08:34 23.9 29 24
003C3CC8 2019-04-10 00:37:19 23.9 29 24.1
003C3CC8 2019-04-10 00:05:31 23.9 28 24.2
003C3CC8 2019-04-09 23:34:16 23.8 28 24.2
003C3CC8 2019-04-09 23:03:01 23.7 27 24.3
003C3CC8 2019-04-09 22:31:46 23.6 27 24.2
003C3CC8 2019-04-09 22:00:31 23.5 25 24.3
003C3CC8 2019-04-09 21:29:16 23.4 25 24.4
003C3CC8 2019-04-09 20:58:02 23.4 25 24.3
003C3CC8 2019-04-09 20:26:48 23.4 25 24.4
003C3CC8 2019-04-09 19:55:34 23.3 25 24.4
003C3CC8 2019-04-09 19:24:20 23.3 25 24.5
003C3CC8 2019-04-09 18:53:06 23.2 25 24.4
003C3CC8 2019-04-09 18:21:53 23.2 25 24.4
003C3CC8 2019-04-09 17:50:38 23.2 25 24.3
003C3CC8 2019-04-09 17:19:24 23.2 25 24.2
003C3CC8 2019-04-09 16:48:09 23.2 25 24.3
003C3CC8 2019-04-09 16:16:54 23.2 25 24.3
003C3CC8 2019-04-09 15:45:40 23.2 26 24.3
003C3CC8 2019-04-09 15:14:24 23.3 26 24.3
003C3CC8 2019-04-09 14:43:10 23.3 26 24.4
003C3CC8 2019-04-09 14:11:55 23.3 26 24.4
003C3CC8 2019-04-09 13:40:41 23.3 26 24.4
003C3CC8 2019-04-09 13:09:25 23.3 26 24.3
003C3CC8 2019-04-09 12:38:10 23.3 26 24.2
003C3CC8 2019-04-09 12:06:55 23.3 26 24.2
003C3CC8 2019-04-09 11:35:40 23.4 26 24.2
003C3CC8 2019-04-09 11:04:25 23.4 26 24.2
003C3CC8 2019-04-09 10:33:10 23.4 26 24.1
003C3CC8 2019-04-09 10:01:55 23.4 26 24.1
003C3CC8 2019-04-09 09:30:41 23.3 26 24.1
003C3CC8 2019-04-09 08:59:26 23.3 26 24
003C3CC8 2019-04-09 08:28:11 23.3 26 24
003C3CC8 2019-04-09 07:56:57 23.4 27 24
003C3CC8 2019-04-09 07:25:42 23.4 27 24
003C3CC8 2019-04-09 06:54:27 23.5 27 24.4
003C3CC8 2019-04-09 06:23:12 23.5 27 24.4
003C3CC8 2019-04-09 05:51:57 23.5 27 24.5
003C3CC8 2019-04-09 05:20:44 23.5 27 24.6
003C3CC8 2019-04-09 04:49:29 23.6 28 24.7
003C3CC8 2019-04-09 04:18:15 23.6 28 24.7
003C3CC8 2019-04-09 03:47:02 23.7 28 24.7
003C3CC8 2019-04-09 03:15:48 23.7 28 24.7
003C3CC8 2019-04-09 02:13:19 23.8 27 24.6
003C3CC8 2019-04-09 01:42:04 23.9 27 24.6
003C3CC8 2019-04-09 01:10:49 23.9 27 24.7
003C3CC8 2019-04-09 00:39:35 24 27 24.7
003C3CC8 2019-04-09 00:08:22 24 26 24.8
003C3CC8 2019-04-08 23:37:08 23.9 26 24.7
003C3CC8 2019-04-08 23:05:53 23.7 25 24.7
003C3CC8 2019-04-08 22:34:39 23.6 24 24.7
003C3CC8 2019-04-08 22:02:53 23.5 24 24.7
003C3CC8 2019-04-08 21:31:39 23.4 24 24.8
003C3CC8 2019-04-08 21:00:24 23.3 24 24.8
003C3CC8 2019-04-08 20:29:10 23.2 23 24.8
003C3CC8 2019-04-08 19:57:56 23.2 23 24.8
003C3CC8 2019-04-08 19:26:44 23.2 23 24.8
003C3CC8 2019-04-08 18:55:29 23.3 23 24.3
003C3CC8 2019-04-08 18:24:16 23.3 23 24.4
003C3CC8 2019-04-08 17:53:02 23.4 23 24.4
003C3CC8 2019-04-08 17:21:49 23.4 23 24.4
003C3CC8 2019-04-08 16:50:36 23.4 23 24.2
003C3CC8 2019-04-08 16:19:21 23.4 23 24.1
003C3CC8 2019-04-08 15:48:08 23.4 23 24.1
003C3CC8 2019-04-08 15:16:54 23.4 23 24
003C3CC8 2019-04-08 14:45:40 23.4 23 24.1
003C3CC8 2019-04-08 14:14:26 23.5 23 24.1
003C3CC8 2019-04-08 13:43:12 23.5 23 24.1
003C3CC8 2019-04-08 13:11:58 23.5 23 24
003C3CC8 2019-04-08 12:40:43 23.5 23 23.9
003C3CC8 2019-04-08 12:09:29 23.5 23 24
003C3CC8 2019-04-08 11:38:15 23.5 23 24.1
003C3CC8 2019-04-08 11:07:00 23.6 23 24.2
003C3CC8 2019-04-08 10:35:45 23.6 23 24.1
003C3CC8 2019-04-08 10:04:30 23.6 23 24.1
003C3CC8 2019-04-08 09:33:16 23.5 23 24.1
003C3CC8 2019-04-08 09:02:01 23.5 23 24
003C3CC8 2019-04-08 08:30:46 23.5 23 24.1
003C3CC8 2019-04-08 07:59:31 23.5 23 24.2
003C3CC8 2019-04-08 07:28:16 23.6 23 24.2
003C3CC8 2019-04-08 06:57:02 23.6 23 24.3
003C3CC8 2019-04-08 06:25:46 23.6 23 24.2
003C3CC8 2019-04-08 05:54:32 23.6 23 24
003C3CC8 2019-04-08 05:23:17 23.7 23 24
003C3CC8 2019-04-08 04:52:03 23.7 23 23.9
003C3CC8 2019-04-08 04:20:49 23.8 23 24
003C3CC8 2019-04-08 03:49:35 23.9 23 24
003C3CC8 2019-04-08 03:18:21 23.9 23 24.1
003C3CC8 2019-04-08 02:47:08 23.9 23 24
003C3CC8 2019-04-08 02:15:54 24 23 24
003C3CC8 2019-04-08 01:44:39 24 23 23.9
003C3CC8 2019-04-08 01:13:25 24 23 24.4
003C3CC8 2019-04-08 00:42:10 24 22 24.4
003C3CC8 2019-04-08 00:10:55 23.9 22 24.4
003C3CC8 2019-04-07 23:39:41 23.9 22 24.4
003C3CC8 2019-04-07 23:08:27 23.9 22 24.5
003C3CC8 2019-04-07 22:37:14 24 22 24.5
003C3CC8 2019-04-07 22:05:59 24 22 24.4
003C3CC8 2019-04-07 21:34:45 24 22 24.5
003C3CC8 2019-04-07 21:03:31 24 22 24.6
003C3CC8 2019-04-07 20:32:17 24 22 24.6
003C3CC8 2019-04-07 20:00:30 24 22 24.6
003C3CC8 2019-04-07 19:29:16 24 23 24.6
003C3CC8 2019-04-07 18:58:02 23.9 23 24.5
003C3CC8 2019-04-07 18:26:49 23.8 23 24.4
003C3CC8 2019-04-07 17:55:36 23.7 22 24.5
003C3CC8 2019-04-07 17:24:21 23.7 22 24.5
003C3CC8 2019-04-07 16:53:07 23.8 22 24.6
003C3CC8 2019-04-07 16:21:51 23.8 22 24.6
003C3CC8 2019-04-07 15:50:37 23.8 22 24.6
003C3CC8 2019-04-07 15:19:22 23.8 22 24.5
003C3CC8 2019-04-07 14:48:06 23.8 22 24.5
003C3CC8 2019-04-07 14:16:52 23.8 22 24.5
003C3CC8 2019-04-07 13:45:37 23.7 22 24.5
003C3CC8 2019-04-07 13:14:21 23.6 22 24.5
003C3CC8 2019-04-07 12:43:07 23.6 21 24
003C3CC8 2019-04-07 12:11:52 23.5 21 23.9
003C3CC8 2019-04-07 11:40:36 23.5 21 23.9
003C3CC8 2019-04-07 11:09:21 23.5 21 23.9
003C3CC8 2019-04-07 10:38:07 23.5 21 23.9
003C3CC8 2019-04-07 10:06:54 23.5 21 23.8
003C3CC8 2019-04-07 09:35:39 23.5 21 23.7
003C3CC8 2019-04-07 09:04:26 23.5 21 23.7
003C3CC8 2019-04-07 08:33:11 23.5 21 23.6
003C3CC8 2019-04-07 08:01:57 23.5 21 23.7
003C3CC8 2019-04-07 07:30:41 23.5 21 23.5
003C3CC8 2019-04-07 06:59:27 23.6 21 23.4
003C3CC8 2019-04-07 06:28:13 23.6 21 23.3
003C3CC8 2019-04-07 05:56:59 23.6 21 23.2
003C3CC8 2019-04-07 05:25:45 23.7 21 23.1
003C3CC8 2019-04-07 04:54:32 23.7 21 23.1
003C3CC8 2019-04-07 04:23:18 23.7 21 23.1
003C3CC8 2019-04-07 03:52:04 23.8 21 23.2
003C3CC8 2019-04-07 03:20:50 23.8 21 23.4
003C3CC8 2019-04-07 02:49:37 23.9 21 23.5
003C3CC8 2019-04-07 02:18:22 23.9 21 23.3
003C3CC8 2019-04-07 01:47:09 24 21 23.4
003C3CC8 2019-04-07 01:15:56 24 21 23.5
003C3CC8 2019-04-07 00:44:42 24 21 23.4
003C3CC8 2019-04-07 00:13:27 24 21 23.5
003C3CC8 2019-04-06 23:42:14 24 21 23.5
003C3CC8 2019-04-06 23:11:01 24 21 23.5
003C3CC8 2019-04-06 22:39:47 24 21 23.5
003C3CC8 2019-04-06 22:08:33 24 21 23.6
003C3CC8 2019-04-06 21:37:19 23.8 21 23.5
003C3CC8 2019-04-06 21:06:04 23.9 21 23.5
003C3CC8 2019-04-06 20:34:51 23.8 21 23.6
003C3CC8 2019-04-06 20:03:38 23.8 21 23.6
003C3CC8 2019-04-06 19:32:25 23.9 21 23.5
003C3CC8 2019-04-06 19:01:11 23.9 22 23.6
003C3CC8 2019-04-06 18:29:57 23.8 22 23.7
003C3CC8 2019-04-06 17:58:11 23.8 22 23.8
003C3CC8 2019-04-06 17:26:58 23.8 22 23.8
003C3CC8 2019-04-06 16:55:45 23.8 22 24
003C3CC8 2019-04-06 16:24:32 23.8 22 23.8
003C3CC8 2019-04-06 15:53:19 23.8 22 23.8
003C3CC8 2019-04-06 15:22:05 23.7 22 23.7
003C3CC8 2019-04-06 14:50:51 23.6 22 23.6
003C3CC8 2019-04-06 14:19:38 23.6 22 23.5
003C3CC8 2019-04-06 13:48:24 23.5 22 23.6
003C3CC8 2019-04-06 13:17:11 23.5 22 23.7
003C3CC8 2019-04-06 12:45:58 23.4 22 23.7
003C3CC8 2019-04-06 12:14:44 23.4 21 23.7
003C3CC8 2019-04-06 11:43:31 23.3 21 23.7
003C3CC8 2019-04-06 11:12:17 23.3 21 23.9
003C3CC8 2019-04-06 10:41:02 23.4 21 24
003C3CC8 2019-04-06 10:09:49 23.3 21 24
003C3CC8 2019-04-06 09:38:35 23.4 21 23.8
003C3CC8 2019-04-06 09:07:22 23.4 21 23.9
003C3CC8 2019-04-06 08:36:08 23.4 21 23.9
003C3CC8 2019-04-06 08:04:54 23.4 21 23.9
003C3CC8 2019-04-06 07:33:41 23.4 21 23.9
003C3CC8 2019-04-06 07:02:27 23.5 21 23.9
003C3CC8 2019-04-06 06:31:13 23.5 21 23.8
003C3CC8 2019-04-06 06:00:00 23.5 21 23.9
003C3CC8 2019-04-06 05:28:45 23.6 21 23.8
003C3CC8 2019-04-06 04:57:31 23.6 21 23.8
003C3CC8 2019-04-06 04:26:16 23.6 21 23.8
003C3CC8 2019-04-06 03:55:02 23.6 21 23.9
003C3CC8 2019-04-06 03:23:47 23.7 21 24
003C3CC8 2019-04-06 02:52:32 23.7 21 24
003C3CC8 2019-04-06 02:21:18 23.7 21 24
003C3CC8 2019-04-06 01:50:03 23.7 21 24.1
003C3CC8 2019-04-06 01:18:49 23.7 21 24.3
003C3CC8 2019-04-06 00:47:39 23.7 21 24.3
003C3CC8 2019-04-06 00:16:20 23.6 21 24.2
003C3CC8 2019-04-05 23:45:06 23.6 21 24.2
003C3CC8 2019-04-05 23:13:52 23.6 21 24.2
003C3CC8 2019-04-05 22:42:37 23.6 21 24.2
003C3CC8 2019-04-05 22:11:23 23.6 21 24.1
003C3CC8 2019-04-05 21:40:09 23.6 21 24.1
003C3CC8 2019-04-05 21:08:55 23.6 21 24
003C3CC8 2019-04-05 20:37:40 23.6 21 24.1
003C3CC8 2019-04-05 20:06:25 23.6 21 24.1
003C3CC8 2019-04-05 19:35:13 23.6 21 24.2
003C3CC8 2019-04-05 19:03:59 23.6 21 24.2
003C3CC8 2019-04-05 18:32:45 23.6 21 24.3
003C3CC8 2019-04-05 18:01:33 23.6 21 24.4
003C3CC8 2019-04-05 17:30:19 23.5 21 24.5
003C3CC8 2019-04-05 16:59:06 23.5 22 24.5
003C3CC8 2019-04-05 16:27:51 23.5 22 24.5
003C3CC8 2019-04-05 15:56:05 23.5 22 24.6
003C3CC8 2019-04-05 15:24:51 23.5 22 24.5
003C3CC8 2019-04-05 14:53:37 23.5 22 24.5
003C3CC8 2019-04-05 14:22:23 23.6 22 24.5
003C3CC8 2019-04-05 13:51:10 23.5 22 24.6
003C3CC8 2019-04-05 13:19:56 23.5 22 24.6
003C3CC8 2019-04-05 12:48:42 23.5 22 24.4
003C3CC8 2019-04-05 12:17:28 23.5 22 24.5
003C3CC8 2019-04-05 11:46:13 23.5 22 24.5
003C3CC8 2019-04-05 11:14:59 23.3 22 24.4
003C3CC8 2019-04-05 10:43:44 23.3 21 24.3
003C3CC8 2019-04-05 10:12:30 23.3 21 24.4
003C3CC8 2019-04-05 09:41:16 23.3 21 24.4
003C3CC8 2019-04-05 09:10:03 23.3 21 24.4
003C3CC8 2019-04-05 08:38:49 23.3 21 24.3
003C3CC8 2019-04-05 08:07:35 23.3 21 24.3
003C3CC8 2019-04-05 07:36:21 23.3 21 24.3
003C3CC8 2019-04-05 07:05:07 23.3 21 24.3
003C3CC8 2019-04-05 06:33:54 23.3 21 24.4
003C3CC8 2019-04-05 06:02:39 23.4 21 24.4
003C3CC8 2019-04-05 05:31:24 23.4 21 24.3
003C3CC8 2019-04-05 05:00:10 23.4 21 24.2
003C3CC8 2019-04-05 04:28:55 23.4 21 24.1
003C3CC8 2019-04-05 03:57:42 23.5 21 24.2
003C3CC8 2019-04-05 03:26:28 23.5 21 24.3
003C3CC8 2019-04-05 02:55:15 23.5 21 24.3
003C3CC8 2019-04-05 02:24:02 23.5 21 24.3
003C3CC8 2019-04-05 01:52:48 23.5 21 24.3
003C3CC8 2019-04-05 01:21:35 23.5 21 24.3
003C3CC8 2019-04-05 00:50:20 23.5 21 24.3
003C3CC8 2019-04-05 00:19:07 23.4 21 24.3
003C3CC8 2019-04-04 23:47:53 23.4 21 24.3
003C3CC8 2019-04-04 23:16:40 23.4 21 24.3
003C3CC8 2019-04-04 22:45:26 23.3 21 24.3
003C3CC8 2019-04-04 22:14:13 23.3 21 24.3
003C3CC8 2019-04-04 21:42:59 23.3 21 24.4
003C3CC8 2019-04-04 21:11:45 23.3 21 24.4
003C3CC8 2019-04-04 20:40:32 23.2 21 24.5
003C3CC8 2019-04-04 20:09:18 23.2 21 24.4
003C3CC8 2019-04-04 19:38:04 23.1 21 24.5
003C3CC8 2019-04-04 19:06:51 23 21 24.5
003C3CC8 2019-04-04 18:35:38 23 21 24.5
003C3CC8 2019-04-04 18:04:24 22.9 21 24.5
003C3CC8 2019-04-04 17:33:11 22.9 21 24.6
003C3CC8 2019-04-04 17:01:58 22.9 21 24.6
003C3CC8 2019-04-04 16:30:44 22.9 21 24.5
003C3CC8 2019-04-04 15:59:31 23 21 24.6
003C3CC8 2019-04-04 15:28:17 23 21 24.6
003C3CC8 2019-04-04 14:57:03 23 21 24.7
003C3CC8 2019-04-04 14:25:51 23.3 21 24.6
003C3CC8 2019-04-04 14:24:38 23.1 21 24.5
003C3CC8 2019-04-04 13:53:25 23.1 21 24.6
003C3CC8 2019-04-04 13:22:12 23.1 21 24.5
003C3CC8 2019-04-04 12:50:58 23.1 21 24.4
003C3CC8 2019-04-04 12:19:44 23.2 21 24.3
003C3CC8 2019-04-04 11:48:30 23.2 21 24.3
003C3CC8 2019-04-04 11:17:17 23.2 21 24.3
003C3CC8 2019-04-04 10:46:03 23.2 21 24.4
003C3CC8 2019-04-04 10:14:50 23.2 21 24.4
003C3CC8 2019-04-04 09:43:37 23.1 21 24.4
003C3CC8 2019-04-04 09:12:25 23.1 21 24.4
003C3CC8 2019-04-04 08:41:12 23.1 21 24.4
003C3CC8 2019-04-04 08:10:00 23.1 21 24.4
003C3CC8 2019-04-04 07:38:47 23.1 21 24.4
003C3CC8 2019-04-04 07:07:33 23.1 21 24.4
003C3CC8 2019-04-04 06:36:21 23.1 21 24.9
003C3CC8 2019-04-04 06:05:08 23.2 21 24.9
003C3CC8 2019-04-04 05:33:55 23.2 21 24.8
003C3CC8 2019-04-04 05:02:42 23.2 21 24.7
003C3CC8 2019-04-04 04:31:29 23.2 21 24.7
003C3CC8 2019-04-04 04:00:15 23.3 21 24.7
003C3CC8 2019-04-04 03:29:02 23.3 21 24.8
003C3CC8 2019-04-04 02:57:48 23.4 21 24.7
003C3CC8 2019-04-04 02:26:35 23.4 21 24.6
003C3CC8 2019-04-04 01:55:23 23.4 21 24.7
003C3CC8 2019-04-04 01:24:08 23.5 21 24.6
003C3CC8 2019-04-04 00:52:53 23.4 21 24.6
003C3CC8 2019-04-04 00:21:40 23.4 21 24.7
003C3CC8 2019-04-03 23:50:27 23.4 21 24.8
003C3CC8 2019-04-03 23:19:14 23.3 21 24.8
003C3CC8 2019-04-03 22:48:00 23.3 21 24.9
003C3CC8 2019-04-03 22:16:46 23.2 21 24.8
003C3CC8 2019-04-03 21:45:32 23.2 21 24.8
003C3CC8 2019-04-03 21:14:18 23.2 21 24.8
003C3CC8 2019-04-03 20:43:04 23.1 21 24.8
003C3CC8 2019-04-03 20:11:51 23.1 21 24.8
003C3CC8 2019-04-03 19:40:39 23.1 21 24.7
003C3CC8 2019-04-03 19:09:26 23.1 21 24.7
003C3CC8 2019-04-03 18:38:13 23.1 21 24.7
003C3CC8 2019-04-03 18:07:00 23 21 24.6
003C3CC8 2019-04-03 17:35:46 23 21 24.1
003C3CC8 2019-04-03 17:04:34 23 21 24.2
003C3CC8 2019-04-03 16:33:21 23.1 21 24.1
003C3CC8 2019-04-03 16:02:08 23.1 21 24.2
003C3CC8 2019-04-03 15:30:55 23.1 21 24.2
003C3CC8 2019-04-03 14:59:42 23.1 22 24.2
003C3CC8 2019-04-03 14:28:30 23.2 22 24.2
003C3CC8 2019-04-03 13:57:16 23.2 22 24.2
003C3CC8 2019-04-03 13:26:03 23.2 22 24.1
003C3CC8 2019-04-03 12:54:50 23.2 22 24.1
003C3CC8 2019-04-03 12:23:03 23.3 22 24.3
003C3CC8 2019-04-03 11:51:50 23.3 22 24.2
003C3CC8 2019-04-03 11:20:36 23.3 22 24.1
003C3CC8 2019-04-03 10:49:23 23.3 22 24.2
003C3CC8 2019-04-03 10:18:10 23.3 22 24.2
003C3CC8 2019-04-03 09:46:57 23.3 22 24.1
003C3CC8 2019-04-03 09:15:44 23.2 22 24.1
003C3CC8 2019-04-03 08:44:31 23.2 22 24.2
003C3CC8 2019-04-03 08:13:19 23.2 22 24.3
003C3CC8 2019-04-03 07:42:05 23.2 22 24.3
003C3CC8 2019-04-03 07:10:52 23.3 22 24.4
003C3CC8 2019-04-03 06:39:38 23.3 22 24.4
003C3CC8 2019-04-03 06:08:25 23.3 22 24.4
003C3CC8 2019-04-03 05:37:11 23.3 22 24.5
003C3CC8 2019-04-03 05:05:59 23.3 22 24.6
003C3CC8 2019-04-03 04:34:46 23.4 22 24.5
003C3CC8 2019-04-03 04:03:32 23.4 22 24.5
003C3CC8 2019-04-03 03:32:18 23.5 22 24.6
003C3CC8 2019-04-03 03:01:05 23.5 22 24.6
003C3CC8 2019-04-03 02:29:52 23.5 22 24.6
003C3CC8 2019-04-03 01:58:39 23.5 22 24.5
003C3CC8 2019-04-03 01:27:26 23.6 22 24.5
003C3CC8 2019-04-03 00:56:13 23.6 22 24.5
003C3CC8 2019-04-03 00:24:59 23.5 22 24.5
003C3CC8 2019-04-02 23:53:46 23.5 22 24.5
003C3CC8 2019-04-02 23:22:33 23.5 22 24.4
003C3CC8 2019-04-02 22:51:21 23.5 22 24.4
003C3CC8 2019-04-02 22:20:08 23.4 22 24.6
003C3CC8 2019-04-02 21:48:55 23.4 22 24.5
003C3CC8 2019-04-02 21:17:44 23.4 22 24.5
003C3CC8 2019-04-02 20:46:31 23.3 22 24.6
003C3CC8 2019-04-02 20:15:18 23.3 22 24.6
003C3CC8 2019-04-02 19:44:05 23.2 22 24.6
003C3CC8 2019-04-02 19:12:53 23.2 22 24.5
003C3CC8 2019-04-02 18:41:41 23.2 22 24.5
003C3CC8 2019-04-02 18:10:27 23.1 22 24.6
003C3CC8 2019-04-02 17:39:14 23.1 23 24.6
003C3CC8 2019-04-02 17:08:01 23.2 23 24.5
003C3CC8 2019-04-02 16:36:48 23.2 23 24.6
003C3CC8 2019-04-02 16:05:34 23.2 23 24.5
003C3CC8 2019-04-02 15:34:21 23.2 23 24.4
003C3CC8 2019-04-02 15:03:08 23.2 23 24.4
003C3CC8 2019-04-02 14:31:56 23.2 23 24.4
003C3CC8 2019-04-02 14:00:43 23.3 23 24.2
003C3CC8 2019-04-02 13:29:30 23.3 23 24.3
003C3CC8 2019-04-02 12:58:16 23.3 23 24.3
003C3CC8 2019-04-02 12:27:03 23.3 23 24.3
003C3CC8 2019-04-02 11:55:49 23.4 23 24.2
003C3CC8 2019-04-02 11:24:36 23.4 23 24.3
003C3CC8 2019-04-02 10:53:22 23.4 23 24.2
003C3CC8 2019-04-02 10:21:36 23.4 23 24.3
003C3CC8 2019-04-02 09:50:22 23.4 23 24.2
003C3CC8 2019-04-02 09:19:08 23.3 22 24.3
003C3CC8 2019-04-02 08:47:54 23.3 22 24.2
003C3CC8 2019-04-02 08:16:40 23.3 22 24.2
003C3CC8 2019-04-02 07:45:26 23.3 22 24.2
003C3CC8 2019-04-02 07:14:11 23.3 22 24.1
003C3CC8 2019-04-02 06:42:57 23.4 22 24.1
003C3CC8 2019-04-02 06:11:44 23.4 22 24
003C3CC8 2019-04-02 05:40:30 23.4 22 23.9
003C3CC8 2019-04-02 05:09:16 23.4 22 23.8
003C3CC8 2019-04-02 04:38:01 23.4 22 23.8
003C3CC8 2019-04-02 04:06:48 23.5 22 23.7
003C3CC8 2019-04-02 03:35:34 23.5 22 23.8
003C3CC8 2019-04-02 03:04:20 23.5 22 24
003C3CC8 2019-04-02 02:33:07 23.5 22 23.9
003C3CC8 2019-04-02 02:01:53 23.5 22 23.9
003C3CC8 2019-04-02 01:30:38 23.5 21 24
003C3CC8 2019-04-02 00:59:23 23.5 21 23.9
003C3CC8 2019-04-02 00:28:09 23.5 21 24
003C3CC8 2019-04-01 23:56:55 23.4 21 24
003C3CC8 2019-04-01 23:25:41 23.4 21 24
003C3CC8 2019-04-01 22:54:26 23.4 21 24
003C3CC8 2019-04-01 22:23:11 23.3 21 24
003C3CC8 2019-04-01 21:51:57 23.2 21 23.9
003C3CC8 2019-04-01 21:20:43 23.2 21 23.9
003C3CC8 2019-04-01 20:49:28 23.1 21 23.8
003C3CC8 2019-04-01 20:18:13 23.1 21 23.8
003C3CC8 2019-04-01 19:46:59 23 21 23.9
003C3CC8 2019-04-01 19:15:45 23 21 23.9
003C3CC8 2019-04-01 18:44:30 23 21 23.9
003C3CC8 2019-04-01 18:13:16 23 22 24
003C3CC8 2019-04-01 17:42:02 22.9 22 24
003C3CC8 2019-04-01 17:10:48 22.9 22 24
003C3CC8 2019-04-01 16:39:34 23 22 24.2
003C3CC8 2019-04-01 16:08:19 23 23 24.2
003C3CC8 2019-04-01 15:37:06 23 23 24.3
003C3CC8 2019-04-01 15:05:52 23.1 23 24.3
003C3CC8 2019-04-01 14:34:37 23.1 24 24.2
003C3CC8 2019-04-01 14:03:23 23.2 24 24.2
003C3CC8 2019-04-01 13:32:09 23.2 24 24.3
003C3CC8 2019-04-01 13:00:55 23.2 25 24.2
003C3CC8 2019-04-01 12:29:41 23.3 25 24.2
003C3CC8 2019-04-01 11:58:27 23.3 25 24.1
003C3CC8 2019-04-01 11:27:12 23.4 25 24.2
003C3CC8 2019-04-01 10:55:59 23.3 25 24.2
003C3CC8 2019-04-01 10:24:46 23.3 25 24.3
003C3CC8 2019-04-01 09:53:31 23.4 25 24.3
003C3CC8 2019-04-01 09:22:17 23.4 25 24.5
003C3CC8 2019-04-01 08:51:04 23.3 25 24.4
003C3CC8 2019-04-01 08:19:18 23.4 25 24.4
003C3CC8 2019-04-01 07:48:04 23.4 25 24.4
003C3CC8 2019-04-01 07:16:50 23.4 25 24.4
003C3CC8 2019-04-01 06:45:36 23.5 25 24.4
003C3CC8 2019-04-01 06:14:22 23.5 25 24.4
003C3CC8 2019-04-01 05:43:08 23.5 25 24.4
003C3CC8 2019-04-01 05:11:54 23.6 25 24.4
003C3CC8 2019-04-01 04:40:40 23.6 24 24.3
003C3CC8 2019-04-01 04:09:25 23.6 24 24.2
003C3CC8 2019-04-01 03:38:10 23.6 24 24.2
003C3CC8 2019-04-01 03:06:55 23.6 24 24.2
003C3CC8 2019-04-01 02:35:41 23.6 23 24.2
003C3CC8 2019-04-01 02:04:26 23.5 23 24.2
003C3CC8 2019-04-01 01:33:11 23.6 23 24.1
003C3CC8 2019-04-01 01:01:56 23.6 23 24.1
003C3CC8 2019-04-01 00:30:42 23.6 23 24.2
003C3CC8 2019-03-31 23:59:26 23.6 24 24.3
003C3CC8 2019-03-31 23:28:12 23.6 24 24.3
003C3CC8 2019-03-31 22:56:58 23.6 24 24.4
003C3CC8 2019-03-31 22:25:44 23.5 24 24.3
003C3CC8 2019-03-31 21:54:29 23.5 23 24.3
003C3CC8 2019-03-31 21:23:15 23.5 23 24.3
003C3CC8 2019-03-31 20:51:59 23.5 24 24.1
003C3CC8 2019-03-31 20:20:46 23.5 24 24.2
003C3CC8 2019-03-31 19:49:31 23.5 24 24.2
003C3CC8 2019-03-31 19:18:16 23.5 24 24.2
003C3CC8 2019-03-31 18:47:03 23.5 25 24.2
003C3CC8 2019-03-31 18:15:48 23.5 25 24.2
003C3CC8 2019-03-31 17:44:33 23.5 25 24.2
003C3CC8 2019-03-31 17:13:19 23.5 25 24.2
003C3CC8 2019-03-31 16:42:04 23.5 25 24.2
003C3CC8 2019-03-31 16:10:49 23.6 25 24.2
003C3CC8 2019-03-31 15:39:35 23.6 25 24.3
003C3CC8 2019-03-31 15:08:20 23.6 25 24.2
003C3CC8 2019-03-31 14:37:08 23.5 25 24.2
003C3CC8 2019-03-31 14:05:51 23.5 25 24.2
003C3CC8 2019-03-31 13:34:36 23.4 25 24.1
003C3CC8 2019-03-31 13:03:23 23.4 25 24.1
003C3CC8 2019-03-31 12:32:09 23.4 25 24.1
003C3CC8 2019-03-31 12:00:55 23.3 25 24.1
003C3CC8 2019-03-31 11:29:46 23.4 25 24
003C3CC8 2019-03-31 10:58:27 23.4 25 24
003C3CC8 2019-03-31 10:27:12 23.4 25 24
003C3CC8 2019-03-31 09:55:57 23.4 25 23.9
003C3CC8 2019-03-31 09:24:43 23.5 25 23.9
003C3CC8 2019-03-31 08:53:28 23.5 25 23.9
003C3CC8 2019-03-31 08:22:14 23.5 25 23.9
003C3CC8 2019-03-31 07:50:59 23.6 25 24
003C3CC8 2019-03-31 07:19:44 23.6 25 23.9
003C3CC8 2019-03-31 06:48:31 23.7 25 23.8
003C3CC8 2019-03-31 06:16:41 23.7 25 23.9
003C3CC8 2019-03-31 05:45:28 23.7 25 23.8
003C3CC8 2019-03-31 05:14:13 23.8 25 23.8
003C3CC8 2019-03-31 04:42:57 23.8 25 23.8
003C3CC8 2019-03-31 04:11:43 23.8 25 23.9
003C3CC8 2019-03-31 02:40:27 23.9 25 23.9
003C3CC8 2019-03-31 02:09:13 23.9 25 23.9
003C3CC8 2019-03-31 01:37:57 23.9 25 24
003C3CC8 2019-03-31 01:06:42 23.9 25 24
003C3CC8 2019-03-31 00:35:28 23.9 25 24
003C3CC8 2019-03-31 00:04:14 23.9 25 24
003C3CC8 2019-03-30 23:32:59 23.9 25 24
003C3CC8 2019-03-30 23:01:45 23.8 25 24
003C3CC8 2019-03-30 22:30:31 23.9 25 24
003C3CC8 2019-03-30 21:59:16 23.8 25 24.1
003C3CC8 2019-03-30 21:28:01 23.8 25 24.1
003C3CC8 2019-03-30 20:56:48 23.8 25 24.1
003C3CC8 2019-03-30 20:25:33 23.8 25 24.2
003C3CC8 2019-03-30 19:54:17 23.8 25 24.2
003C3CC8 2019-03-30 19:23:02 23.8 25 24.3
003C3CC8 2019-03-30 18:51:47 23.8 25 24.3
003C3CC8 2019-03-30 18:20:31 23.7 24 24.3
003C3CC8 2019-03-30 17:49:15 23.7 24 24.8
003C3CC8 2019-03-30 17:18:00 23.7 24 24.8
003C3CC8 2019-03-30 16:46:44 23.7 24 24.8
003C3CC8 2019-03-30 16:15:29 23.7 24 24.9
003C3CC8 2019-03-30 15:44:15 23.7 24 24.8
003C3CC8 2019-03-30 15:13:01 23.7 24 24.9
003C3CC8 2019-03-30 14:41:47 23.7 24 25
003C3CC8 2019-03-30 14:10:32 23.7 24 24.9
003C3CC8 2019-03-30 13:39:19 23.6 24 24.9
003C3CC8 2019-03-30 13:08:04 23.6 24 25
003C3CC8 2019-03-30 12:36:50 23.6 24 25
003C3CC8 2019-03-30 12:05:36 23.6 24 25.1
003C3CC8 2019-03-30 11:34:22 23.6 24 25.1
003C3CC8 2019-03-30 11:03:08 23.6 24 25.2
003C3CC8 2019-03-30 10:31:54 23.7 24 25.3
003C3CC8 2019-03-30 10:00:39 23.7 24 25.3
003C3CC8 2019-03-30 09:29:26 23.7 24 25.2
003C3CC8 2019-03-30 08:58:11 23.7 24 25.2
003C3CC8 2019-03-30 08:26:58 23.8 24 25.3
003C3CC8 2019-03-30 07:55:44 23.8 24 25.3
003C3CC8 2019-03-30 07:24:30 23.8 24 25.3
003C3CC8 2019-03-30 06:53:17 23.9 24 25.3
003C3CC8 2019-03-30 06:22:03 23.9 24 25.3
003C3CC8 2019-03-30 05:50:50 23.9 25 25.3
003C3CC8 2019-03-30 05:19:36 24 24 25.2
003C3CC8 2019-03-30 04:48:20 24 25 24.8
003C3CC8 2019-03-30 04:17:05 24 25 24.8
003C3CC8 2019-03-30 03:45:52 24 24 24.7
003C3CC8 2019-03-30 03:14:05 24 24 24.6
003C3CC8 2019-03-30 02:42:50 24 24 24.5
003C3CC8 2019-03-30 02:11:37 24 25 24.5
003C3CC8 2019-03-30 01:40:28 24 25 24.5
003C3CC8 2019-03-30 01:09:10 24 25 24.5
003C3CC8 2019-03-30 00:37:56 24 25 24.4
003C3CC8 2019-03-30 00:06:42 24 25 24.3
003C3CC8 2019-03-29 23:35:27 24 25 24.2
003C3CC8 2019-03-29 23:04:13 24 25 24.2
003C3CC8 2019-03-29 22:32:59 24 25 24.2
003C3CC8 2019-03-29 22:01:45 24 25 24.2
003C3CC8 2019-03-29 21:30:30 24 25 24.2
003C3CC8 2019-03-29 20:59:14 24 25 24.2
003C3CC8 2019-03-29 20:27:59 24 25 24.2
003C3CC8 2019-03-29 19:56:45 24 25 24.2
003C3CC8 2019-03-29 19:25:31 24 25 24.1
003C3CC8 2019-03-29 18:54:17 24 25 24
003C3CC8 2019-03-29 18:23:02 24 25 24.1
003C3CC8 2019-03-29 17:51:47 24 25 24.1
003C3CC8 2019-03-29 17:20:34 24 25 24
003C3CC8 2019-03-29 16:49:19 23.9 25 24.2
003C3CC8 2019-03-29 16:18:05 23.9 25 24.2
003C3CC8 2019-03-29 15:46:51 23.9 25 24.3
003C3CC8 2019-03-29 15:15:37 23.9 25 24.1
003C3CC8 2019-03-29 14:44:23 23.9 25 24.3
003C3CC8 2019-03-29 14:13:09 23.9 25 24.3
003C3CC8 2019-03-29 13:41:55 23.8 24 24.3
003C3CC8 2019-03-29 13:10:41 23.8 24 24.2
003C3CC8 2019-03-29 12:39:27 23.8 24 24.3
003C3CC8 2019-03-29 12:08:13 23.8 24 24.3
003C3CC8 2019-03-29 11:36:59 23.7 24 24.4
003C3CC8 2019-03-29 11:05:45 23.7 23 24.5
003C3CC8 2019-03-29 10:34:31 23.6 23 24.6
003C3CC8 2019-03-29 10:03:17 23.6 23 24.6
003C3CC8 2019-03-29 09:32:03 23.6 23 24.5
003C3CC8 2019-03-29 09:00:49 23.7 23 24.5
003C3CC8 2019-03-29 08:29:35 23.6 23 24.5
003C3CC8 2019-03-29 07:58:21 23.7 23 24.5
003C3CC8 2019-03-29 07:27:07 23.7 23 24.5
003C3CC8 2019-03-29 06:55:52 23.7 23 24.4
003C3CC8 2019-03-29 06:24:38 23.7 23 24.4
003C3CC8 2019-03-29 05:53:23 23.7 23 24.4
003C3CC8 2019-03-29 05:22:09 23.8 23 24.3
003C3CC8 2019-03-29 04:50:56 23.8 23 24.3
003C3CC8 2019-03-29 04:19:42 23.8 23 24.3
003C3CC8 2019-03-29 03:48:28 23.9 23 24.2
003C3CC8 2019-03-29 03:17:15 23.9 23 24.2
003C3CC8 2019-03-29 02:46:01 23.9 23 24.2
003C3CC8 2019-03-29 02:14:46 23.9 23 24.2
003C3CC8 2019-03-29 01:43:31 23.9 23 24.1
003C3CC8 2019-03-29 01:11:45 23.9 23 24.7
003C3CC8 2019-03-29 00:40:31 23.9 23 24.6
003C3CC8 2019-03-29 00:09:15 23.9 23 24.5
003C3CC8 2019-03-28 23:38:00 23.9 23 24.9
003C3CC8 2019-03-28 23:06:47 23.8 23 24.8
003C3CC8 2019-03-28 22:35:33 23.8 22 24.8
003C3CC8 2019-03-28 22:04:19 23.8 22 24.7
003C3CC8 2019-03-28 21:33:05 23.8 22 24.7
003C3CC8 2019-03-28 21:01:50 23.7 22 25.2
003C3CC8 2019-03-28 20:30:36 23.6 22 25.2
003C3CC8 2019-03-28 19:59:24 23.6 22 25.3
003C3CC8 2019-03-28 19:28:11 23.6 22 25.2
003C3CC8 2019-03-28 18:56:58 23.6 22 25.2
003C3CC8 2019-03-28 18:25:45 23.5 22 25.3
003C3CC8 2019-03-28 17:54:32 23.5 22 25.3
003C3CC8 2019-03-28 17:23:17 23.5 22 25.4
003C3CC8 2019-03-28 16:52:04 23.6 21 25.4
003C3CC8 2019-03-28 16:20:51 23.6 22 25.4
003C3CC8 2019-03-28 15:49:39 23.6 21 25.4
003C3CC8 2019-03-28 15:18:26 23.6 21 25.8
003C3CC8 2019-03-28 14:47:15 23.7 21 25.7
003C3CC8 2019-03-28 14:16:00 23.7 21 25.7
003C3CC8 2019-03-28 13:44:46 23.7 21 25.7
003C3CC8 2019-03-28 13:13:32 23.7 21 25.7
003C3CC8 2019-03-28 12:42:18 23.8 21 25.6
003C3CC8 2019-03-28 12:11:05 23.8 21 25.2
003C3CC8 2019-03-28 11:39:51 23.8 21 25.2
003C3CC8 2019-03-28 11:08:35 23.8 21 25.3
003C3CC8 2019-03-28 10:37:20 23.8 21 25
003C3CC8 2019-03-28 10:06:05 23.8 21 25
003C3CC8 2019-03-28 09:34:50 23.7 21 24.9
003C3CC8 2019-03-28 09:03:35 23.7 21 25
003C3CC8 2019-03-28 08:32:21 23.7 21 25
003C3CC8 2019-03-28 08:01:07 23.7 21 24.7
003C3CC8 2019-03-28 07:29:54 23.8 21 24.6
003C3CC8 2019-03-28 06:58:41 23.8 21 24.6
003C3CC8 2019-03-28 06:27:26 23.8 21 24.6
003C3CC8 2019-03-28 05:56:12 23.8 21 25
003C3CC8 2019-03-28 05:24:58 23.8 21 24.9
003C3CC8 2019-03-28 04:53:44 23.8 21 24.8
003C3CC8 2019-03-28 04:22:29 23.9 21 24.8
003C3CC8 2019-03-28 03:51:14 23.9 21 24.7
003C3CC8 2019-03-28 03:20:00 23.9 21 24.7
003C3CC8 2019-03-28 02:48:46 23.9 20 24.6
003C3CC8 2019-03-28 02:17:33 23.9 20 24.3
003C3CC8 2019-03-28 01:46:23 24 20 24.3
003C3CC8 2019-03-28 01:15:05 23.9 20 24.3
003C3CC8 2019-03-28 00:43:51 24 20 24.3
003C3CC8 2019-03-28 00:12:40 23.9 20 24.6
003C3CC8 2019-03-27 23:41:22 23.9 20 24.6
003C3CC8 2019-03-27 23:09:35 23.9 20 24.8
003C3CC8 2019-03-27 22:38:21 23.8 20 24.7
003C3CC8 2019-03-27 22:07:05 23.8 20 24.7
003C3CC8 2019-03-27 21:35:51 23.7 20 24.7
003C3CC8 2019-03-27 21:04:36 23.7 20 24.7
003C3CC8 2019-03-27 20:33:21 23.6 19 24.7
003C3CC8 2019-03-27 20:02:07 23.6 19 24.6
003C3CC8 2019-03-27 19:30:53 23.5 19 24.6
003C3CC8 2019-03-27 18:59:39 23.5 19 24.6
003C3CC8 2019-03-27 18:28:25 23.6 19 24.7
003C3CC8 2019-03-27 17:57:11 23.5 19 24.2
003C3CC8 2019-03-27 17:25:57 23.5 19 24.3
003C3CC8 2019-03-27 16:54:42 23.5 19 24.3
003C3CC8 2019-03-27 16:23:29 23.5 19 24.3
003C3CC8 2019-03-27 15:52:16 23.5 18 24.4
003C3CC8 2019-03-27 15:21:02 23.5 18 24.9
003C3CC8 2019-03-27 14:49:49 23.5 18 25
003C3CC8 2019-03-27 14:18:35 23.6 18 24.9
003C3CC8 2019-03-27 13:47:23 23.6 18 24.9
003C3CC8 2019-03-27 13:16:09 23.6 18 24.9
003C3CC8 2019-03-27 12:44:55 23.6 18 25
003C3CC8 2019-03-27 12:13:40 23.6 18 24.9
003C3CC8 2019-03-27 11:42:27 23.6 18 24.8
003C3CC8 2019-03-27 11:11:13 23.6 18 24.8
003C3CC8 2019-03-27 10:39:59 23.7 18 24.7
003C3CC8 2019-03-27 10:08:44 23.6 18 24.7
003C3CC8 2019-03-27 09:37:29 23.6 18 24.7
003C3CC8 2019-03-27 09:06:19 23.5 18 24.7
003C3CC8 2019-03-27 08:35:01 23.5 17 24.8
003C3CC8 2019-03-27 08:03:48 23.5 17 24.8
003C3CC8 2019-03-27 07:32:33 23.5 17 24.9
003C3CC8 2019-03-27 07:01:19 23.5 18 24.9
003C3CC8 2019-03-27 06:30:04 23.5 18 24.9
003C3CC8 2019-03-27 05:58:50 23.5 18 24.9
003C3CC8 2019-03-27 05:27:40 23.5 18 24.9
003C3CC8 2019-03-27 04:56:22 23.6 17 24.9
003C3CC8 2019-03-27 04:25:09 23.6 17 24.8
003C3CC8 2019-03-27 03:53:56 23.6 17 24.9
003C3CC8 2019-03-27 03:22:40 23.6 17 24.9
003C3CC8 2019-03-27 02:51:27 23.6 17 24.8
003C3CC8 2019-03-27 02:20:14 23.6 17 24.5
003C3CC8 2019-03-27 01:49:00 23.6 18 24.4
003C3CC8 2019-03-27 01:17:45 23.5 17 24.4
003C3CC8 2019-03-27 00:46:31 23.5 17 24.4
003C3CC8 2019-03-27 00:15:17 23.5 17 24.4
003C3CC8 2019-03-26 23:44:02 23.5 18 24.3
003C3CC8 2019-03-26 23:12:49 23.4 18 24.3
003C3CC8 2019-03-26 22:41:35 23.4 18 24.3
003C3CC8 2019-03-26 22:10:22 23.3 18 24.3
003C3CC8 2019-03-26 21:39:09 23.3 18 24.3
003C3CC8 2019-03-26 21:07:22 23.3 18 24.4
003C3CC8 2019-03-26 20:36:08 23.2 18 24.4
003C3CC8 2019-03-26 20:04:54 23.2 18 24.4
003C3CC8 2019-03-26 19:33:41 23.2 18 24.4
003C3CC8 2019-03-26 19:02:29 23.1 19 24.4
003C3CC8 2019-03-26 18:31:15 23.2 19 24.4
003C3CC8 2019-03-26 18:00:01 23.2 19 24.4
003C3CC8 2019-03-26 17:28:46 23.1 19 24.3
003C3CC8 2019-03-26 16:57:32 23.1 19 24.4
003C3CC8 2019-03-26 16:26:19 23.1 20 24.3
003C3CC8 2019-03-26 15:55:05 23.2 20 24.4
003C3CC8 2019-03-26 15:23:51 23.2 20 24.4
003C3CC8 2019-03-26 14:52:36 23.2 20 24.3
003C3CC8 2019-03-26 14:21:21 23.2 21 24.4
003C3CC8 2019-03-26 13:50:06 23.2 21 24.3
003C3CC8 2019-03-26 13:18:51 23.3 21 24.2
003C3CC8 2019-03-26 12:47:37 23.3 21 24.4
003C3CC8 2019-03-26 12:16:23 23.3 21 24.3
003C3CC8 2019-03-26 11:45:08 23.3 21 24.3
003C3CC8 2019-03-26 11:13:53 23.4 22 24.4
003C3CC8 2019-03-26 10:42:38 23.4 22 24.5
003C3CC8 2019-03-26 10:11:23 23.4 22 24.5
003C3CC8 2019-03-26 09:40:09 23.4 22 24.4
003C3CC8 2019-03-26 09:08:55 23.4 22 24.5
003C3CC8 2019-03-26 08:37:41 23.4 22 24.4
003C3CC8 2019-03-26 08:06:26 23.4 22 24.4
003C3CC8 2019-03-26 07:35:12 23.4 22 24.3
003C3CC8 2019-03-26 07:03:58 23.4 22 24.1
003C3CC8 2019-03-26 06:32:44 23.4 22 24.1
003C3CC8 2019-03-26 06:01:29 23.4 22 24.1
003C3CC8 2019-03-26 05:30:15 23.5 22 24
003C3CC8 2019-03-26 04:59:00 23.5 22 24
003C3CC8 2019-03-26 04:27:46 23.5 22 24.1
003C3CC8 2019-03-26 03:56:32 23.6 22 24
003C3CC8 2019-03-26 03:25:18 23.6 22 24
003C3CC8 2019-03-26 02:54:04 23.6 22 24
003C3CC8 2019-03-26 02:22:49 23.7 22 24.1
003C3CC8 2019-03-26 01:51:36 23.7 22 24.1
003C3CC8 2019-03-26 01:20:22 23.8 22 24.1
003C3CC8 2019-03-26 00:49:08 23.8 22 24
003C3CC8 2019-03-26 00:17:53 23.9 23 24.1
003C3CC8 2019-03-25 23:46:40 23.9 23 24.1
003C3CC8 2019-03-25 23:15:25 23.9 23 24.2
003C3CC8 2019-03-25 22:44:11 24 23 24.1
003C3CC8 2019-03-25 22:12:56 24 23 24
003C3CC8 2019-03-25 21:41:42 23.9 23 24.2
003C3CC8 2019-03-25 21:10:29 23.8 23 24.2
003C3CC8 2019-03-25 20:39:15 23.6 23 24.2
003C3CC8 2019-03-25 20:08:00 23.4 23 24.2
003C3CC8 2019-03-25 19:36:46 23.2 23 24.2
003C3CC8 2019-03-25 19:05:00 23.1 23 24.8
003C3CC8 2019-03-25 18:33:46 23 23 25
003C3CC8 2019-03-25 18:02:32 23 23 24.9
003C3CC8 2019-03-25 17:31:18 23 23 25.1
003C3CC8 2019-03-25 17:00:03 23 23 25.3
003C3CC8 2019-03-25 16:28:48 23 23 25.2
003C3CC8 2019-03-25 15:57:34 23 23 25.1
003C3CC8 2019-03-25 15:26:20 23 23 25.2
003C3CC8 2019-03-25 14:55:07 23 23 25.2
003C3CC8 2019-03-25 14:23:53 23.1 23 25.2
003C3CC8 2019-03-25 13:52:41 23.1 23 25.2
003C3CC8 2019-03-25 13:21:25 23.1 23 25.6
003C3CC8 2019-03-25 12:50:11 23.1 23 25.6
003C3CC8 2019-03-25 12:18:58 23.2 23 25.6
003C3CC8 2019-03-25 11:47:43 23.2 23 25.6
003C3CC8 2019-03-25 11:16:29 23.3 24 25.6
003C3CC8 2019-03-25 10:45:16 23.3 23 25.5
003C3CC8 2019-03-25 10:14:03 23.3 24 25.6
003C3CC8 2019-03-25 09:42:50 23.3 23 25.6
003C3CC8 2019-03-25 09:11:37 23.3 23 25.5
003C3CC8 2019-03-25 08:40:22 23.3 23 25.5
003C3CC8 2019-03-25 08:09:08 23.3 23 25.4
003C3CC8 2019-03-25 07:37:56 23.3 23 25.5
003C3CC8 2019-03-25 07:06:42 23.3 23 25.5
003C3CC8 2019-03-25 06:35:29 23.4 23 25.4
003C3CC8 2019-03-25 06:04:16 23.4 23 25
003C3CC8 2019-03-25 05:33:01 23.4 23 25
003C3CC8 2019-03-25 05:01:48 23.5 23 24.9
003C3CC8 2019-03-25 04:30:35 23.5 23 25.2
003C3CC8 2019-03-25 03:59:20 23.5 23 25.1
003C3CC8 2019-03-25 03:28:06 23.5 23 25.1
003C3CC8 2019-03-25 02:56:53 23.5 23 25.3
003C3CC8 2019-03-25 02:25:39 23.4 23 25.3
003C3CC8 2019-03-25 01:54:25 23.4 23 25.4
003C3CC8 2019-03-25 01:23:11 23.4 23 25.4
003C3CC8 2019-03-25 00:51:57 23.4 23 25.3
003C3CC8 2019-03-25 00:20:44 23.4 23 24.9
003C3CC8 2019-03-24 23:49:30 23.4 23 24.8
003C3CC8 2019-03-24 23:18:15 23.4 23 24.8
003C3CC8 2019-03-24 22:46:59 23.4 23 24.7
003C3CC8 2019-03-24 22:15:46 23.3 23 24.7
003C3CC8 2019-03-24 21:44:30 23.3 23 24.8
003C3CC8 2019-03-24 21:13:15 23.3 23 24.9
003C3CC8 2019-03-24 20:42:01 23.2 23 24.8
003C3CC8 2019-03-24 20:10:46 23.2 23 24.9
003C3CC8 2019-03-24 19:39:31 23.2 23 24.8
003C3CC8 2019-03-24 19:08:17 23.2 23 24.9
003C3CC8 2019-03-24 18:37:03 23.2 23 24.9
003C3CC8 2019-03-24 18:05:49 23.1 23 24.8
003C3CC8 2019-03-24 17:34:35 23.1 22 24.8
003C3CC8 2019-03-24 17:02:48 23.1 23 25
003C3CC8 2019-03-24 16:31:34 23.1 23 25
003C3CC8 2019-03-24 16:00:19 23.1 23 24.6
003C3CC8 2019-03-24 15:29:05 23 23 24.5
003C3CC8 2019-03-24 14:57:50 23 23 24.5
003C3CC8 2019-03-24 14:26:37 22.9 23 24.4
003C3CC8 2019-03-24 13:55:23 22.9 23 24.3
003C3CC8 2019-03-24 13:24:09 22.9 23 24.2
003C3CC8 2019-03-24 12:52:55 23 24 24.2
003C3CC8 2019-03-24 12:21:38 23 24 24.3
003C3CC8 2019-03-24 11:50:24 23 24 24.3
003C3CC8 2019-03-24 11:19:09 23.1 24 24.2
003C3CC8 2019-03-24 10:47:56 23.1 24 24.2
003C3CC8 2019-03-24 10:16:39 23.1 24 24.4
003C3CC8 2019-03-24 09:45:25 23.1 24 24.6
003C3CC8 2019-03-24 09:14:11 23.1 25 24.6
003C3CC8 2019-03-24 08:42:57 23.1 25 24.6
003C3CC8 2019-03-24 08:11:44 23.2 25 24.5
003C3CC8 2019-03-24 07:40:29 23.2 25 24.4
003C3CC8 2019-03-24 07:09:15 23.2 25 24.4
003C3CC8 2019-03-24 06:38:00 23.3 25 24.3
003C3CC8 2019-03-24 06:06:44 23.3 25 24.3
003C3CC8 2019-03-24 05:35:29 23.4 25 24.2
003C3CC8 2019-03-24 05:04:15 23.4 25 24.3
003C3CC8 2019-03-24 04:33:00 23.5 25 24.3
003C3CC8 2019-03-24 04:01:45 23.4 25 24.2
003C3CC8 2019-03-24 03:30:32 23.5 25 24.1
003C3CC8 2019-03-24 02:59:17 23.5 26 24.1
003C3CC8 2019-03-24 02:28:01 23.5 26 24.1
003C3CC8 2019-03-24 01:56:47 23.5 26 24.1
003C3CC8 2019-03-24 01:25:33 23.5 26 24.2
003C3CC8 2019-03-24 00:54:17 23.5 26 24.3
003C3CC8 2019-03-24 00:23:02 23.5 26 24.2
003C3CC8 2019-03-23 23:51:47 23.4 26 24.2
003C3CC8 2019-03-23 23:20:31 23.5 26 24.2
003C3CC8 2019-03-23 22:49:17 23.5 26 24.3
003C3CC8 2019-03-23 22:18:03 23.5 26 24.3
003C3CC8 2019-03-23 21:46:50 23.5 26 24.3
003C3CC8 2019-03-23 21:15:36 23.5 26 24.2
003C3CC8 2019-03-23 20:44:22 23.4 26 24.2
003C3CC8 2019-03-23 20:13:08 23.4 26 24.2
003C3CC8 2019-03-23 19:41:55 23.4 26 24.1
003C3CC8 2019-03-23 19:10:43 23.4 26 24.2
003C3CC8 2019-03-23 18:39:30 23.4 26 24.4
003C3CC8 2019-03-23 18:08:17 23.4 26 24.4
003C3CC8 2019-03-23 17:37:03 23.3 26 24.4
003C3CC8 2019-03-23 17:05:50 23.3 26 24.4
003C3CC8 2019-03-23 16:34:36 23.2 26 24.5
003C3CC8 2019-03-23 16:03:22 23.1 26 24.4
003C3CC8 2019-03-23 15:32:08 23 26 24.5
003C3CC8 2019-03-23 15:00:20 23 26 24.7
003C3CC8 2019-03-23 14:29:05 23 26 24.7
003C3CC8 2019-03-23 13:57:52 22.9 25 24.8
003C3CC8 2019-03-23 13:26:38 22.9 25 24.8
003C3CC8 2019-03-23 12:55:24 22.9 26 24.7
003C3CC8 2019-03-23 12:24:10 22.9 26 24.7
003C3CC8 2019-03-23 11:52:57 22.9 26 24.7
003C3CC8 2019-03-23 11:21:44 22.9 26 24.8
003C3CC8 2019-03-23 10:50:30 22.9 26 24.8
003C3CC8 2019-03-23 10:19:15 22.9 26 24.7
003C3CC8 2019-03-23 09:48:00 23 26 24.8
003C3CC8 2019-03-23 09:16:46 23 26 24.8
003C3CC8 2019-03-23 08:45:31 23 26 24.8
003C3CC8 2019-03-23 08:14:17 23.1 27 24.8
003C3CC8 2019-03-23 07:43:03 23.2 27 24.7
003C3CC8 2019-03-23 07:11:47 23.2 27 24.7
003C3CC8 2019-03-23 06:40:33 23.3 28 24.7
003C3CC8 2019-03-23 06:09:19 23.4 28 24.6
003C3CC8 2019-03-23 05:38:03 23.5 28 24.7
003C3CC8 2019-03-23 05:06:48 23.5 29 24.6
003C3CC8 2019-03-23 04:35:33 23.6 29 24.6
003C3CC8 2019-03-23 04:04:20 23.6 29 24.7
003C3CC8 2019-03-23 03:33:06 23.6 29 24.7
003C3CC8 2019-03-23 03:01:52 23.5 28 24.5
003C3CC8 2019-03-23 02:30:40 23.5 28 24.5
003C3CC8 2019-03-23 01:59:23 23.5 27 24.5
003C3CC8 2019-03-23 01:28:10 23.4 27 24.5
003C3CC8 2019-03-23 00:56:57 23.4 26 24.4
003C3CC8 2019-03-23 00:25:42 23.4 26 24.4
003C3CC8 2019-03-22 23:54:28 23.4 26 24.4
003C3CC8 2019-03-22 23:23:15 23.3 25 24.4
003C3CC8 2019-03-22 22:52:00 23.3 25 24.3
003C3CC8 2019-03-22 22:20:47 23.3 25 24.2
003C3CC8 2019-03-22 21:49:34 23.2 25 24.1
003C3CC8 2019-03-22 21:18:20 23.2 24 24.1
003C3CC8 2019-03-22 20:47:06 23.2 24 24.1
003C3CC8 2019-03-22 20:15:52 23.3 24 24.1
003C3CC8 2019-03-22 19:44:39 23.3 24 24.1
003C3CC8 2019-03-22 19:13:24 23.2 23 24
003C3CC8 2019-03-22 18:42:10 23.1 23 24.1
003C3CC8 2019-03-22 18:10:56 23 22 24.2
003C3CC8 2019-03-22 17:39:41 22.9 22 24.2
003C3CC8 2019-03-22 17:08:27 22.9 21 24.2
003C3CC8 2019-03-22 16:37:12 22.9 22 24.2
003C3CC8 2019-03-22 16:05:58 22.9 22 24.2
003C3CC8 2019-03-22 15:34:43 22.8 23 24.1
003C3CC8 2019-03-22 15:03:29 22.8 23 24
003C3CC8 2019-03-22 14:32:14 22.8 23 23.9
003C3CC8 2019-03-22 14:01:00 22.8 23 24.1
003C3CC8 2019-03-22 13:29:46 22.9 23 24
003C3CC8 2019-03-22 12:58:00 22.9 23 24
003C3CC8 2019-03-22 12:26:46 22.9 23 24
003C3CC8 2019-03-22 11:55:32 22.9 23 24.1
003C3CC8 2019-03-22 11:24:17 22.9 23 24.1
003C3CC8 2019-03-22 10:53:02 22.9 23 24.1
003C3CC8 2019-03-22 10:21:49 23 24 24
003C3CC8 2019-03-22 09:50:35 22.9 24 24.1
003C3CC8 2019-03-22 09:19:20 22.9 24 24.2
003C3CC8 2019-03-22 08:48:06 23 24 24.2
003C3CC8 2019-03-22 08:16:51 22.9 24 24.2
003C3CC8 2019-03-22 07:45:37 23 24 24.2
003C3CC8 2019-03-22 07:14:23 23 24 24.3
003C3CC8 2019-03-22 06:43:08 23.1 24 24.2
003C3CC8 2019-03-22 06:11:53 23.1 24 24.2
003C3CC8 2019-03-22 05:40:40 23.2 24 24.1
003C3CC8 2019-03-22 05:09:26 23.2 24 24
003C3CC8 2019-03-22 04:38:11 23.3 24 24
003C3CC8 2019-03-22 04:06:58 23.3 25 23.9
003C3CC8 2019-03-22 03:35:43 23.3 25 23.9
003C3CC8 2019-03-22 03:04:28 23.4 25 24
003C3CC8 2019-03-22 02:33:14 23.4 25 24.1
003C3CC8 2019-03-22 02:01:59 23.4 25 24
003C3CC8 2019-03-22 01:30:44 23.5 26 24.2
003C3CC8 2019-03-22 00:59:30 23.4 26 24.2
003C3CC8 2019-03-22 00:28:16 23.5 26 24.1
003C3CC8 2019-03-21 23:57:02 23.5 26 24.1
003C3CC8 2019-03-21 23:25:48 23.5 26 24.1
003C3CC8 2019-03-21 22:54:34 23.5 26 24
003C3CC8 2019-03-21 22:23:20 23.5 26 23.9
003C3CC8 2019-03-21 21:52:05 23.5 26 24
003C3CC8 2019-03-21 21:20:51 23.5 26 23.9
003C3CC8 2019-03-21 20:49:36 23.4 26 24
003C3CC8 2019-03-21 20:18:21 23.4 26 24
003C3CC8 2019-03-21 19:47:08 23.4 26 24.1
003C3CC8 2019-03-21 19:15:54 23.4 26 24.1
003C3CC8 2019-03-21 18:44:39 23.4 26 24.2
003C3CC8 2019-03-21 18:13:25 23.3 25 24.1
003C3CC8 2019-03-21 17:42:11 23.3 25 24.6
003C3CC8 2019-03-21 17:10:57 23.3 25 24.7
003C3CC8 2019-03-21 16:39:43 23.2 25 24.8
003C3CC8 2019-03-21 16:08:28 23.2 25 24.9
003C3CC8 2019-03-21 15:37:14 23.2 25 24.9
003C3CC8 2019-03-21 15:05:59 23.2 25 24.9
003C3CC8 2019-03-21 14:34:44 23.1 25 25
003C3CC8 2019-03-21 14:03:30 23.1 24 24.8
003C3CC8 2019-03-21 13:32:17 23.1 24 24.8
003C3CC8 2019-03-21 13:01:02 23.2 24 24.8
003C3CC8 2019-03-21 12:29:48 23.2 24 24.7
003C3CC8 2019-03-21 11:58:34 23.2 24 24.6
003C3CC8 2019-03-21 11:27:20 23.2 24 24.6
003C3CC8 2019-03-21 10:55:33 23.2 24 24.7
003C3CC8 2019-03-21 10:24:20 23.2 24 24.8
003C3CC8 2019-03-21 09:53:06 23.3 24 24.8
003C3CC8 2019-03-21 09:21:52 23.2 24 24.7
003C3CC8 2019-03-21 08:50:37 23.3 24 24.8
003C3CC8 2019-03-21 08:19:24 23.3 24 24.8
003C3CC8 2019-03-21 07:48:09 23.3 24 24.7
003C3CC8 2019-03-21 07:16:56 23.3 24 24.7
003C3CC8 2019-03-21 06:45:42 23.3 24 24.6
003C3CC8 2019-03-21 06:14:28 23.3 24 24.7
003C3CC8 2019-03-21 05:43:15 23.4 24 24.7
003C3CC8 2019-03-21 05:12:00 23.4 24 24.2
003C3CC8 2019-03-21 04:40:46 23.4 25 24.2
003C3CC8 2019-03-21 04:09:32 23.4 25 24
003C3CC8 2019-03-21 03:38:17 23.4 25 23.9
003C3CC8 2019-03-21 03:07:03 23.4 25 23.9
003C3CC8 2019-03-21 02:35:48 23.5 25 23.9
003C3CC8 2019-03-21 02:04:33 23.5 25 23.9
003C3CC8 2019-03-21 01:33:18 23.6 25 24
003C3CC8 2019-03-21 01:02:03 23.6 25 24
003C3CC8 2019-03-21 00:30:48 23.6 25 24
003C3CC8 2019-03-20 23:59:33 23.6 26 24.1
003C3CC8 2019-03-20 23:28:17 23.5 26 24.1
003C3CC8 2019-03-20 22:57:03 23.3 26 24
003C3CC8 2019-03-20 22:25:48 23.2 25 24.1
003C3CC8 2019-03-20 21:54:33 23.1 25 23.9
003C3CC8 2019-03-20 21:23:18 23.1 25 24
003C3CC8 2019-03-20 20:52:02 23.1 25 24.1
003C3CC8 2019-03-20 20:20:48 23.1 26 24.3
003C3CC8 2019-03-20 19:49:33 23.1 26 24.2
003C3CC8 2019-03-20 19:18:18 23 26 24.2
003C3CC8 2019-03-20 18:47:04 23 26 24.2
003C3CC8 2019-03-20 18:15:49 22.9 26 24.2
003C3CC8 2019-03-20 17:44:35 22.9 26 24.2
003C3CC8 2019-03-20 17:13:21 22.9 26 24.1
003C3CC8 2019-03-20 16:42:07 22.9 26 24.1
003C3CC8 2019-03-20 16:10:53 22.8 26 24.1
003C3CC8 2019-03-20 15:39:39 22.9 26 24.1
003C3CC8 2019-03-20 15:08:24 22.9 26 24.2
003C3CC8 2019-03-20 14:37:11 22.9 26 24.1
003C3CC8 2019-03-20 14:05:56 22.9 26 24.1
003C3CC8 2019-03-20 13:34:41 23 27 24.2
003C3CC8 2019-03-20 13:03:25 22.9 27 24.3
003C3CC8 2019-03-20 12:32:11 22.9 27 24.3
003C3CC8 2019-03-20 12:00:56 22.9 27 24.2
003C3CC8 2019-03-20 11:29:43 22.9 27 24.3
003C3CC8 2019-03-20 10:58:28 22.9 27 24.3
003C3CC8 2019-03-20 10:27:14 22.9 27 24.3
003C3CC8 2019-03-20 09:56:00 22.9 27 24.4
003C3CC8 2019-03-20 09:24:46 23 28 24.3
003C3CC8 2019-03-20 08:52:58 23 28 24.3
003C3CC8 2019-03-20 08:21:42 23 28 24.3
003C3CC8 2019-03-20 07:50:27 23.1 28 24.3
003C3CC8 2019-03-20 07:19:12 23.1 28 24.4
003C3CC8 2019-03-20 06:47:57 23.1 29 24.4
003C3CC8 2019-03-20 06:16:39 23.2 29 24.3
003C3CC8 2019-03-20 05:45:24 23.3 29 24.4
003C3CC8 2019-03-20 05:14:07 23.3 29 24.3
003C3CC8 2019-03-20 04:42:52 23.4 29 24.3
003C3CC8 2019-03-20 04:11:37 23.5 29 24.3
003C3CC8 2019-03-20 03:40:22 23.5 29 24.3
003C3CC8 2019-03-20 03:09:08 23.5 28 24.3
003C3CC8 2019-03-20 02:37:53 23.5 28 24.3
003C3CC8 2019-03-20 02:06:39 23.5 28 24.4
003C3CC8 2019-03-20 01:35:29 23.5 27 24.4
003C3CC8 2019-03-20 01:04:11 23.5 27 24.4
003C3CC8 2019-03-20 00:32:56 23.4 27 24.4
003C3CC8 2019-03-20 00:01:42 23.4 26 24.5
003C3CC8 2019-03-19 23:30:27 23.3 26 24.5
003C3CC8 2019-03-19 22:59:13 23.3 26 24.5
003C3CC8 2019-03-19 22:27:58 23.4 26 24.5
003C3CC8 2019-03-19 21:56:43 23.4 26 24.5
003C3CC8 2019-03-19 21:25:27 23.4 26 24.5
003C3CC8 2019-03-19 20:54:11 23.4 26 24.5
003C3CC8 2019-03-19 20:22:57 23.4 26 24.5
003C3CC8 2019-03-19 19:51:43 23.4 26 24.4
003C3CC8 2019-03-19 19:20:27 23.4 26 24.4
003C3CC8 2019-03-19 18:49:11 23.4 26 24.2
003C3CC8 2019-03-19 18:17:55 23.4 26 24.2
003C3CC8 2019-03-19 17:46:40 23.4 26 24.2
003C3CC8 2019-03-19 17:15:23 23.4 26 24.3
003C3CC8 2019-03-19 16:44:08 23.3 26 24.3
003C3CC8 2019-03-19 16:12:53 23.3 26 24.4
003C3CC8 2019-03-19 15:41:38 23.2 26 24.3
003C3CC8 2019-03-19 15:10:24 23.2 26 24.5
003C3CC8 2019-03-19 14:39:09 23.1 26 24.4
003C3CC8 2019-03-19 14:07:54 23.1 26 24.4
003C3CC8 2019-03-19 13:36:40 23.1 26 24.4
003C3CC8 2019-03-19 13:05:26 23.1 26 24.3
003C3CC8 2019-03-19 12:34:11 23.1 26 24.3
003C3CC8 2019-03-19 12:02:56 23.1 26 24.3
003C3CC8 2019-03-19 11:31:41 23.1 26 24.2
003C3CC8 2019-03-19 11:00:27 23.1 26 24.1
003C3CC8 2019-03-19 10:29:12 23.1 26 24.1
003C3CC8 2019-03-19 09:57:58 23.1 26 24.2
003C3CC8 2019-03-19 09:26:45 23 25 24.2
003C3CC8 2019-03-19 08:55:31 23 25 24.3
003C3CC8 2019-03-19 08:24:17 23.1 25 24.3
003C3CC8 2019-03-19 07:53:03 23.1 25 24.4
003C3CC8 2019-03-19 07:21:48 23.1 25 24.4
003C3CC8 2019-03-19 06:50:01 23.2 25 24.5
003C3CC8 2019-03-19 06:18:47 23.2 25 24.5
003C3CC8 2019-03-19 05:47:34 23.2 25 24.4
003C3CC8 2019-03-19 05:16:20 23.2 25 24.4
003C3CC8 2019-03-19 04:45:07 23.2 25 24.3
003C3CC8 2019-03-19 04:13:52 23.2 25 24.2
003C3CC8 2019-03-19 03:42:37 23.2 25 24.2
003C3CC8 2019-03-19 03:11:23 23.3 25 24.2
003C3CC8 2019-03-19 02:40:09 23.3 25 24
003C3CC8 2019-03-19 02:08:54 23.3 25 24
003C3CC8 2019-03-19 01:37:39 23.3 25 24.1
003C3CC8 2019-03-19 01:06:25 23.3 25 24.2
003C3CC8 2019-03-19 00:35:09 23.3 25 24.2
003C3CC8 2019-03-19 00:03:55 23.3 25 24.3
003C3CC8 2019-03-18 23:32:40 23.2 25 24.2
003C3CC8 2019-03-18 23:01:26 23.2 25 24.3
003C3CC8 2019-03-18 22:30:11 23.2 25 24.2
003C3CC8 2019-03-18 21:58:57 23.1 25 24.2
003C3CC8 2019-03-18 21:27:42 23.1 25 24.6
003C3CC8 2019-03-18 20:56:27 23.1 25 24.6
003C3CC8 2019-03-18 20:25:12 23 25 24.5
003C3CC8 2019-03-18 19:53:57 22.9 25 24.5
003C3CC8 2019-03-18 19:22:42 22.9 25 24.4
003C3CC8 2019-03-18 18:51:28 22.8 25 24.4
003C3CC8 2019-03-18 18:20:13 22.8 25 24.5
003C3CC8 2019-03-18 17:48:59 22.9 25 24.4
003C3CC8 2019-03-18 17:17:44 22.9 25 24.4
003C3CC8 2019-03-18 16:46:29 22.9 25 24.4
003C3CC8 2019-03-18 16:15:15 22.9 25 24.5
003C3CC8 2019-03-18 15:44:00 22.9 25 24.5
003C3CC8 2019-03-18 15:12:46 23 25 24.5
003C3CC8 2019-03-18 14:41:32 23 25 24.5
003C3CC8 2019-03-18 14:10:17 23 25 24.6
003C3CC8 2019-03-18 13:39:03 23.1 25 24.5
003C3CC8 2019-03-18 13:07:48 23.1 25 24.5
003C3CC8 2019-03-18 12:36:32 23.2 25 24.5
003C3CC8 2019-03-18 12:05:18 23.2 25 24.5
003C3CC8 2019-03-18 11:34:03 23.2 26 24.5
003C3CC8 2019-03-18 11:02:48 23.3 26 24.4
003C3CC8 2019-03-18 10:31:33 23.3 26 24.4
003C3CC8 2019-03-18 10:00:19 23.2 26 24.4
003C3CC8 2019-03-18 09:29:05 23.3 26 24.3
003C3CC8 2019-03-18 08:57:51 23.3 26 24.4
003C3CC8 2019-03-18 08:26:37 23.4 26 23.8
003C3CC8 2019-03-18 07:55:22 23.4 26 24.3
003C3CC8 2019-03-18 07:24:09 23.4 26 24.2
003C3CC8 2019-03-18 06:52:55 23.5 26 24.3
003C3CC8 2019-03-18 06:21:40 23.5 26 24.3
003C3CC8 2019-03-18 05:50:25 23.5 26 24.4
003C3CC8 2019-03-18 05:19:09 23.6 26 24.4
003C3CC8 2019-03-18 04:47:23 23.6 26 24.5
003C3CC8 2019-03-18 04:16:08 23.6 26 24.6
003C3CC8 2019-03-18 03:44:54 23.6 26 24.5
003C3CC8 2019-03-18 03:13:39 23.7 26 24.6
003C3CC8 2019-03-18 02:42:25 23.6 26 24.7
003C3CC8 2019-03-18 02:11:10 23.6 26 24.7
003C3CC8 2019-03-18 01:39:55 23.6 26 24.7
003C3CC8 2019-03-18 01:08:41 23.6 26 24.7
003C3CC8 2019-03-18 00:37:25 23.6 26 24.6
003C3CC8 2019-03-18 00:06:10 23.6 26 24.5
003C3CC8 2019-03-17 23:34:55 23.6 26 24.6
003C3CC8 2019-03-17 23:03:39 23.6 26 24.6
003C3CC8 2019-03-17 22:32:24 23.6 26 24.7
003C3CC8 2019-03-17 22:01:07 23.6 26 24.8
003C3CC8 2019-03-17 21:29:51 23.6 26 24.8
003C3CC8 2019-03-17 20:58:35 23.6 26 24.9
003C3CC8 2019-03-17 20:27:19 23.6 26 24.9
003C3CC8 2019-03-17 19:56:02 23.5 26 25
003C3CC8 2019-03-17 19:24:46 23.5 26 24.5
003C3CC8 2019-03-17 18:53:30 23.3 26 24.6
003C3CC8 2019-03-17 18:22:15 23.2 26 24.5
003C3CC8 2019-03-17 17:50:59 23.1 25 24.5
003C3CC8 2019-03-17 17:19:44 23.1 25 24.6
003C3CC8 2019-03-17 16:48:29 23.1 26 24.5
003C3CC8 2019-03-17 16:17:14 23.2 26 24.4
003C3CC8 2019-03-17 15:45:59 23.2 26 24.3
003C3CC8 2019-03-17 15:14:43 23.2 26 24.4
003C3CC8 2019-03-17 14:43:28 23.2 26 24.5
003C3CC8 2019-03-17 14:12:12 23.2 26 24.4
003C3CC8 2019-03-17 13:40:57 23.2 26 24.4
003C3CC8 2019-03-17 13:09:43 23.2 27 24.3
003C3CC8 2019-03-17 12:38:27 23.2 27 24.3
003C3CC8 2019-03-17 12:07:12 23.2 27 24.3
003C3CC8 2019-03-17 11:35:58 23.2 27 24.4
003C3CC8 2019-03-17 11:04:44 23.3 27 24.4
003C3CC8 2019-03-17 10:33:30 23.3 27 24.5
003C3CC8 2019-03-17 10:02:15 23.3 28 24.5
003C3CC8 2019-03-17 09:30:59 23.3 28 24.4
003C3CC8 2019-03-17 08:59:45 23.4 28 24.3
003C3CC8 2019-03-17 08:28:32 23.4 28 24.4
003C3CC8 2019-03-17 07:57:17 23.5 28 24.5
003C3CC8 2019-03-17 07:26:03 23.5 28 24.5
003C3CC8 2019-03-17 06:54:48 23.5 28 24.5
003C3CC8 2019-03-17 06:23:33 23.6 28 24.5
003C3CC8 2019-03-17 05:52:20 23.7 28 24.5
003C3CC8 2019-03-17 05:21:05 23.8 29 24.5
003C3CC8 2019-03-17 04:49:51 23.8 29 24.5
003C3CC8 2019-03-17 04:18:37 23.8 29 24.4
003C3CC8 2019-03-17 03:47:21 23.9 29 24.4
003C3CC8 2019-03-17 03:16:07 23.9 29 24.5
003C3CC8 2019-03-17 02:44:22 23.9 28 24.5
003C3CC8 2019-03-17 02:13:05 23.9 29 24.5
003C3CC8 2019-03-17 01:41:51 23.9 27 24.5
003C3CC8 2019-03-17 01:10:36 23.8 26 24.5
003C3CC8 2019-03-17 00:39:22 23.8 26 24.5
003C3CC8 2019-03-17 00:08:08 23.8 25 24.5
003C3CC8 2019-03-16 23:36:54 23.8 25 24.6
003C3CC8 2019-03-16 23:05:41 23.8 25 24.5
003C3CC8 2019-03-16 22:34:25 23.7 25 24.5
003C3CC8 2019-03-16 22:03:12 23.7 25 24.5
003C3CC8 2019-03-16 21:31:58 23.6 25 24.5
003C3CC8 2019-03-16 21:00:44 23.6 24 24.5
003C3CC8 2019-03-16 20:29:30 23.5 24 24.5
003C3CC8 2019-03-16 19:58:15 23.5 24 24.5
003C3CC8 2019-03-16 19:27:00 23.5 24 24.4
003C3CC8 2019-03-16 18:55:47 23.5 24 24.4
003C3CC8 2019-03-16 18:24:33 23.4 24 24.4
003C3CC8 2019-03-16 17:53:19 23.4 24 24.4
003C3CC8 2019-03-16 17:22:05 23.4 24 24.4
003C3CC8 2019-03-16 16:50:51 23.3 24 24.4
003C3CC8 2019-03-16 16:19:37 23.3 24 24.5
003C3CC8 2019-03-16 15:48:23 23.3 24 24.4
003C3CC8 2019-03-16 15:17:08 23.3 24 24.5
003C3CC8 2019-03-16 14:45:54 23.2 24 24.4
003C3CC8 2019-03-16 14:14:39 23.2 24 24.4
003C3CC8 2019-03-16 13:43:27 23.2 23 24.3
003C3CC8 2019-03-16 13:12:11 23.2 23 24.2
003C3CC8 2019-03-16 12:40:57 23.2 23 24.3
003C3CC8 2019-03-16 12:09:42 23.3 23 24.3
003C3CC8 2019-03-16 11:38:27 23.3 23 24.3
003C3CC8 2019-03-16 11:07:11 23.3 23 24.2
003C3CC8 2019-03-16 10:35:55 23.3 24 24.1
003C3CC8 2019-03-16 10:04:39 23.4 23 24.2
003C3CC8 2019-03-16 09:33:24 23.3 24 24.3
003C3CC8 2019-03-16 09:02:09 23.4 24 24.1
003C3CC8 2019-03-16 08:30:53 23.4 24 24.1
003C3CC8 2019-03-16 07:59:38 23.4 24 24.1
003C3CC8 2019-03-16 07:28:23 23.5 24 24.1
003C3CC8 2019-03-16 06:57:07 23.5 24 24.1
003C3CC8 2019-03-16 06:25:52 23.6 24 24
003C3CC8 2019-03-16 05:54:37 23.6 24 24.1
003C3CC8 2019-03-16 05:23:22 23.6 24 24
003C3CC8 2019-03-16 04:52:07 23.7 24 24
003C3CC8 2019-03-16 04:20:52 23.7 24 24.1
003C3CC8 2019-03-16 03:49:37 23.7 24 24.1
003C3CC8 2019-03-16 03:18:23 23.6 24 23.9
003C3CC8 2019-03-16 02:47:08 23.6 24 24.1
003C3CC8 2019-03-16 02:15:54 23.6 24 24.2
003C3CC8 2019-03-16 01:44:40 23.6 24 24.3
003C3CC8 2019-03-16 01:13:24 23.6 24 24.4
003C3CC8 2019-03-16 00:41:37 23.6 24 24.5
003C3CC8 2019-03-16 00:10:22 23.5 24 24.5
003C3CC8 2019-03-15 23:39:08 23.5 24 24.5
003C3CC8 2019-03-15 23:07:55 23.5 24 24.6
003C3CC8 2019-03-15 22:36:40 23.5 24 24.6
003C3CC8 2019-03-15 22:05:25 23.5 24 24.7
003C3CC8 2019-03-15 21:34:10 23.5 24 24.7
003C3CC8 2019-03-15 21:02:55 23.6 24 24.7
003C3CC8 2019-03-15 20:31:40 23.6 24 24.7
003C3CC8 2019-03-15 20:00:26 23.7 24 24.6
003C3CC8 2019-03-15 19:29:12 23.6 24 24.7
003C3CC8 2019-03-15 18:57:59 23.6 24 24.7
003C3CC8 2019-03-15 18:26:45 23.5 24 24.7
003C3CC8 2019-03-15 17:55:30 23.5 24 24.8
003C3CC8 2019-03-15 17:24:16 23.5 24 24.7
003C3CC8 2019-03-15 16:53:01 23.5 24 24.7
003C3CC8 2019-03-15 16:21:47 23.5 24 24.7
003C3CC8 2019-03-15 15:50:33 23.4 24 24.7
003C3CC8 2019-03-15 15:19:19 23.4 24 24.7
003C3CC8 2019-03-15 14:48:05 23.3 24 24.8
003C3CC8 2019-03-15 14:16:51 23.2 23 24.8
003C3CC8 2019-03-15 13:45:37 23.2 23 24.6
003C3CC8 2019-03-15 13:14:22 23.2 23 24.6
003C3CC8 2019-03-15 12:43:08 23.2 23 24.5
003C3CC8 2019-03-15 12:11:53 23.2 23 24.4
003C3CC8 2019-03-15 11:40:39 23.1 23 24.3
003C3CC8 2019-03-15 11:09:25 23.2 23 24.3
003C3CC8 2019-03-15 10:38:11 23.2 23 24.2
003C3CC8 2019-03-15 10:06:55 23.2 23 24.3
003C3CC8 2019-03-15 09:35:40 23.2 23 24.4
003C3CC8 2019-03-15 09:04:25 23.3 23 24.4
003C3CC8 2019-03-15 08:33:10 23.3 23 24.4
003C3CC8 2019-03-15 08:01:56 23.3 23 24.3
003C3CC8 2019-03-15 07:30:41 23.3 23 24.3
003C3CC8 2019-03-15 06:59:25 23.3 23 24.5
003C3CC8 2019-03-15 06:28:10 23.4 23 24.5
003C3CC8 2019-03-15 05:56:55 23.4 23 24.5
003C3CC8 2019-03-15 05:25:40 23.4 23 24.7
003C3CC8 2019-03-15 04:54:25 23.5 23 24.6
003C3CC8 2019-03-15 04:23:10 23.5 22 24.7
003C3CC8 2019-03-15 03:51:56 23.5 22 24.6
003C3CC8 2019-03-15 03:20:42 23.6 22 24.7
003C3CC8 2019-03-15 02:49:27 23.6 22 24.6
003C3CC8 2019-03-15 02:18:13 23.5 22 24.6
003C3CC8 2019-03-15 01:46:58 23.6 22 24.6
003C3CC8 2019-03-15 01:15:43 23.6 22 24.6
003C3CC8 2019-03-15 00:44:28 23.6 22 24.7
003C3CC8 2019-03-15 00:13:14 23.6 22 24.7
003C3CC8 2019-03-14 23:42:00 23.6 22 24.7
003C3CC8 2019-03-14 23:10:45 23.6 22 24.8
003C3CC8 2019-03-14 22:38:59 23.6 22 24.8
003C3CC8 2019-03-14 22:07:46 23.6 22 24.8
003C3CC8 2019-03-14 21:36:30 23.5 22 24.8
003C3CC8 2019-03-14 21:05:16 23.4 22 24.8
003C3CC8 2019-03-14 20:34:02 23.4 22 24.8
003C3CC8 2019-03-14 20:02:48 23.3 22 24.7
003C3CC8 2019-03-14 19:31:34 23.3 21 24.7
003C3CC8 2019-03-14 19:00:20 23.3 21 24.8
003C3CC8 2019-03-14 18:29:08 23.2 21 24.7
003C3CC8 2019-03-14 17:57:51 23.2 21 24.7
003C3CC8 2019-03-14 17:26:38 23.2 21 24.8
003C3CC8 2019-03-14 16:55:25 23.1 21 24.7
003C3CC8 2019-03-14 16:24:10 23.1 21 24.7
003C3CC8 2019-03-14 15:52:56 23 21 24.6
003C3CC8 2019-03-14 15:21:42 23 20 24.8
003C3CC8 2019-03-14 14:50:28 23 20 24.7
003C3CC8 2019-03-14 14:19:14 23.1 20 24.7
003C3CC8 2019-03-14 13:48:00 23.1 20 24.6
003C3CC8 2019-03-14 13:16:47 23.1 20 24.8
003C3CC8 2019-03-14 12:45:33 23.1 20 24.6
003C3CC8 2019-03-14 12:14:19 23.1 20 24.6
003C3CC8 2019-03-14 11:43:06 23.2 20 24.5
003C3CC8 2019-03-14 11:11:52 23.2 20 24.6
003C3CC8 2019-03-14 10:40:38 23.2 20 24.5
003C3CC8 2019-03-14 10:09:24 23.3 20 24.5
003C3CC8 2019-03-14 09:38:09 23.2 20 24.5
003C3CC8 2019-03-14 09:06:56 23.2 20 24.6
003C3CC8 2019-03-14 04:57:04 23.5 19 25
003C3CC8 2019-03-14 04:25:49 23.5 19 25.1
003C3CC8 2019-03-14 03:54:35 23.6 19 25.1
003C3CC8 2019-03-14 03:23:20 23.6 19 25.1
003C3CC8 2019-03-14 02:52:05 23.6 19 25
003C3CC8 2019-03-14 02:20:51 23.6 19 24.9
003C3CC8 2019-03-14 01:49:36 23.6 19 25
003C3CC8 2019-03-14 01:18:22 23.6 19 25
003C3CC8 2019-03-14 00:47:08 23.7 19 25
003C3CC8 2019-03-14 00:15:54 23.6 19 25
003C3CC8 2019-03-13 23:44:38 23.4 18 25
003C3CC8 2019-03-13 23:13:24 23.4 18 25
003C3CC8 2019-03-13 22:42:09 23.4 18 25.1
003C3CC8 2019-03-13 22:10:56 23.4 18 25
003C3CC8 2019-03-13 21:39:41 23.4 18 25.1
003C3CC8 2019-03-13 21:08:27 23.3 18 25.2
003C3CC8 2019-03-13 20:36:40 23.3 18 25.3
003C3CC8 2019-03-13 20:05:24 23.3 18 25.3
003C3CC8 2019-03-13 19:34:10 23.2 18 25.3
003C3CC8 2019-03-13 19:02:55 23.1 18 25.2
003C3CC8 2019-03-13 18:31:40 23 18 25.2
003C3CC8 2019-03-13 18:00:25 23 18 25.2
003C3CC8 2019-03-13 17:29:11 23 18 25.2
003C3CC8 2019-03-13 16:57:56 23 18 25.2
003C3CC8 2019-03-13 16:26:43 23 18 24.8
003C3CC8 2019-03-13 15:55:28 23 18 24.7
003C3CC8 2019-03-13 15:24:13 23 18 24.6
003C3CC8 2019-03-13 14:52:57 23 18 24.6
003C3CC8 2019-03-13 14:21:42 23 18 24.7
003C3CC8 2019-03-13 13:50:28 23.1 18 24.8
003C3CC8 2019-03-13 13:19:13 23.1 18 24.9
003C3CC8 2019-03-13 12:47:57 23.1 18 24.9
003C3CC8 2019-03-13 12:16:42 23.1 18 24.8
003C3CC8 2019-03-13 11:45:26 23.2 18 24.8
003C3CC8 2019-03-13 11:14:12 23.2 18 24.8
003C3CC8 2019-03-13 10:42:57 23.2 18 24.8
003C3CC8 2019-03-13 10:11:42 23.2 18 24.9
003C3CC8 2019-03-13 09:40:27 23.2 18 24.8
003C3CC8 2019-03-13 09:09:13 23.2 18 24.7
003C3CC8 2019-03-13 08:37:58 23.2 18 24.6
003C3CC8 2019-03-13 08:06:44 23.2 18 24.7
003C3CC8 2019-03-13 07:35:31 23.2 18 24.5
003C3CC8 2019-03-13 07:04:17 23.2 18 24.5
003C3CC8 2019-03-13 06:33:02 23.2 18 24.5
003C3CC8 2019-03-13 06:01:48 23.3 18 24.6
003C3CC8 2019-03-13 05:30:34 23.3 18 24.6
003C3CC8 2019-03-13 04:59:19 23.3 18 24.6
003C3CC8 2019-03-13 04:28:06 23.4 18 24.5
003C3CC8 2019-03-13 03:56:51 23.4 18 24.5
003C3CC8 2019-03-13 03:25:37 23.4 18 24.5
003C3CC8 2019-03-13 02:54:22 23.5 18 24.6
003C3CC8 2019-03-13 02:23:08 23.5 18 24.6
003C3CC8 2019-03-13 01:51:54 23.5 18 24.6
003C3CC8 2019-03-13 01:20:40 23.5 18 24.6
003C3CC8 2019-03-13 00:49:26 23.6 18 24.7
003C3CC8 2019-03-13 00:18:12 23.5 18 24.6
003C3CC8 2019-03-12 23:46:58 23.5 18 24.7
003C3CC8 2019-03-12 23:15:43 23.5 18 24.6
003C3CC8 2019-03-12 22:44:28 23.5 18 24.7
003C3CC8 2019-03-12 22:13:14 23.5 18 24.8
003C3CC8 2019-03-12 21:42:00 23.5 18 24.7
003C3CC8 2019-03-12 21:10:46 23.5 18 24.6
003C3CC8 2019-03-12 20:39:31 23.5 18 24.7
003C3CC8 2019-03-12 20:08:17 23.5 18 24.7
003C3CC8 2019-03-12 19:37:04 23.5 18 24.7
003C3CC8 2019-03-12 19:05:49 23.5 18 24.7
003C3CC8 2019-03-12 18:34:02 23.5 18 24.7
003C3CC8 2019-03-12 18:02:49 23.5 18 24.8
003C3CC8 2019-03-12 17:31:32 23.5 18 24.8
003C3CC8 2019-03-12 17:00:18 23.5 18 24.8
003C3CC8 2019-03-12 16:29:03 23.5 18 24.7
003C3CC8 2019-03-12 15:57:49 23.5 18 24.7
003C3CC8 2019-03-12 15:26:35 23.5 18 24.7
003C3CC8 2019-03-12 14:55:21 23.5 18 24.7
003C3CC8 2019-03-12 14:24:05 23.4 19 25
003C3CC8 2019-03-12 13:52:51 23.3 18 25
003C3CC8 2019-03-12 13:21:38 23.4 18 25
003C3CC8 2019-03-12 12:50:24 23.3 18 24.9
003C3CC8 2019-03-12 12:19:10 23.3 18 24.9
003C3CC8 2019-03-12 11:47:57 23.3 18 24.8
003C3CC8 2019-03-12 11:16:42 23.2 18 24.8
003C3CC8 2019-03-12 10:45:29 23.1 18 24.9
003C3CC8 2019-03-12 10:14:14 23.1 18 24.9
003C3CC8 2019-03-12 09:43:01 23.1 18 24.9
003C3CC8 2019-03-12 09:11:47 23.1 18 24.9
003C3CC8 2019-03-12 08:40:33 23.1 18 24.9
003C3CC8 2019-03-12 08:09:19 23.1 18 24.9
003C3CC8 2019-03-12 07:38:03 23.1 18 24.9
003C3CC8 2019-03-12 07:06:50 23.2 18 24.9
003C3CC8 2019-03-12 06:35:35 23.2 18 24.9
003C3CC8 2019-03-12 06:04:20 23.2 18 25
003C3CC8 2019-03-12 05:33:04 23.3 18 24.9
003C3CC8 2019-03-12 05:01:48 23.3 18 24.8
003C3CC8 2019-03-12 04:30:32 23.3 18 24.8
003C3CC8 2019-03-12 03:59:17 23.4 18 24.9
003C3CC8 2019-03-12 03:28:02 23.4 18 24.9
003C3CC8 2019-03-12 02:56:48 23.4 18 24.8
003C3CC8 2019-03-12 02:25:33 23.4 18 24.8
003C3CC8 2019-03-12 01:54:17 23.4 18 24.8
003C3CC8 2019-03-12 01:23:03 23.4 18 24.3
003C3CC8 2019-03-12 00:51:48 23.4 18 24.2
003C3CC8 2019-03-12 00:20:34 23.3 18 24.2
003C3CC8 2019-03-11 23:49:20 23.3 18 24.2
003C3CC8 2019-03-11 23:18:06 23.2 18 24.4
003C3CC8 2019-03-11 22:46:51 23.2 18 24.4
003C3CC8 2019-03-11 22:15:37 23.2 18 24.3
003C3CC8 2019-03-11 21:44:22 23.1 18 24.3
003C3CC8 2019-03-11 21:13:07 23.1 18 24.3
003C3CC8 2019-03-11 20:41:53 23 18 24.2
003C3CC8 2019-03-11 20:10:38 23 18 24.3
003C3CC8 2019-03-11 19:39:23 23 19 24.2
003C3CC8 2019-03-11 19:08:08 22.9 18 24.2
003C3CC8 2019-03-11 18:36:54 22.9 18 24.7
003C3CC8 2019-03-11 18:05:39 22.9 18 24.6
003C3CC8 2019-03-11 17:34:25 22.9 18 24.6
003C3CC8 2019-03-11 17:03:10 22.9 18 24.6
003C3CC8 2019-03-11 16:31:25 23 18 24.6
003C3CC8 2019-03-11 16:00:11 23 18 24.6
003C3CC8 2019-03-11 15:28:57 23 18 24.7
003C3CC8 2019-03-11 14:57:43 23 18 24.6
003C3CC8 2019-03-11 14:26:29 23 18 24.7
003C3CC8 2019-03-11 13:55:15 23 18 24.8
003C3CC8 2019-03-11 13:24:01 23 19 24.8
003C3CC8 2019-03-11 12:52:47 23.1 19 24.9
003C3CC8 2019-03-11 12:21:32 23.1 19 24.9
003C3CC8 2019-03-11 11:50:17 23.1 19 24.8
003C3CC8 2019-03-11 11:19:02 23.1 19 24.8
003C3CC8 2019-03-11 10:47:47 23.2 19 24.7
003C3CC8 2019-03-11 10:16:33 23.3 19 24.8
003C3CC8 2019-03-11 09:45:19 23.3 19 24.9
003C3CC8 2019-03-11 09:14:05 23.3 19 24.9
003C3CC8 2019-03-11 08:42:51 23.2 19 24.9
003C3CC8 2019-03-11 08:11:37 23.3 19 24.8
003C3CC8 2019-03-11 07:40:23 23.3 19 24.7
003C3CC8 2019-03-11 07:09:09 23.3 19 24.8
003C3CC8 2019-03-11 06:37:55 23.4 19 24.8
003C3CC8 2019-03-11 06:06:42 23.4 19 24.3
003C3CC8 2019-03-11 05:35:28 23.5 19 24.4
003C3CC8 2019-03-11 05:04:15 23.5 19 24.4
003C3CC8 2019-03-11 04:33:01 23.5 19 24.4
003C3CC8 2019-03-11 04:01:47 23.5 19 24.4
003C3CC8 2019-03-11 03:30:34 23.5 19 24.3
003C3CC8 2019-03-11 02:59:19 23.6 19 24.3
003C3CC8 2019-03-11 02:28:06 23.5 19 24.2
003C3CC8 2019-03-11 01:56:53 23.6 19 24.3
003C3CC8 2019-03-11 01:25:39 23.6 20 24.3
003C3CC8 2019-03-11 00:54:24 23.6 20 24.4
003C3CC8 2019-03-11 00:23:10 23.6 20 24.4
003C3CC8 2019-03-10 23:51:56 23.6 20 24.3
003C3CC8 2019-03-10 23:20:43 23.6 20 24.4
003C3CC8 2019-03-10 22:49:30 23.6 20 24.5
003C3CC8 2019-03-10 22:18:15 23.6 20 24.6
003C3CC8 2019-03-10 21:47:00 23.5 20 24.5
003C3CC8 2019-03-10 21:15:46 23.5 20 24.4
003C3CC8 2019-03-10 20:44:32 23.5 20 24.4
003C3CC8 2019-03-10 20:13:17 23.5 20 24.4
003C3CC8 2019-03-10 19:42:03 23.4 21 24.4
003C3CC8 2019-03-10 19:10:49 23.4 21 24.5
003C3CC8 2019-03-10 18:39:35 23.3 21 24.6
003C3CC8 2019-03-10 18:08:21 23.2 21 24.6
003C3CC8 2019-03-10 17:37:06 23.2 20 24.8
003C3CC8 2019-03-10 17:05:52 23.2 21 24.9
003C3CC8 2019-03-10 16:34:37 23.1 21 24.8
003C3CC8 2019-03-10 16:03:24 23 21 24.8
003C3CC8 2019-03-10 15:32:09 23 21 24.8
003C3CC8 2019-03-10 15:00:56 23 21 24.8
003C3CC8 2019-03-10 14:29:09 23 21 24.9
003C3CC8 2019-03-10 13:57:55 23 22 24.8
003C3CC8 2019-03-10 13:26:42 23.1 22 24.8
003C3CC8 2019-03-10 12:55:29 23.1 22 24.7
003C3CC8 2019-03-10 12:24:19 23.1 22 24.7
003C3CC8 2019-03-10 11:53:00 23.2 22 24.7
003C3CC8 2019-03-10 11:21:47 23.2 22 24.7
003C3CC8 2019-03-10 10:50:33 23.2 22 24.6
003C3CC8 2019-03-10 10:19:18 23.2 22 24.6
003C3CC8 2019-03-10 09:48:04 23.3 23 24.5
003C3CC8 2019-03-10 09:16:49 23.3 23 24.5
003C3CC8 2019-03-10 08:45:37 23.3 23 24.5
003C3CC8 2019-03-10 08:14:20 23.4 23 24.4
003C3CC8 2019-03-10 07:43:06 23.4 23 24.4
003C3CC8 2019-03-10 07:11:52 23.4 23 24.4
003C3CC8 2019-03-10 06:40:37 23.5 23 24.3
003C3CC8 2019-03-10 06:09:22 23.5 23 24.2
003C3CC8 2019-03-10 05:38:06 23.5 23 24.2
003C3CC8 2019-03-10 05:06:50 23.6 23 24
003C3CC8 2019-03-10 04:35:35 23.5 23 24
003C3CC8 2019-03-10 04:04:21 23.5 23 24.1
003C3CC8 2019-03-10 03:33:05 23.5 23 24
003C3CC8 2019-03-10 03:01:51 23.5 23 24
003C3CC8 2019-03-10 02:30:37 23.5 23 24.2
003C3CC8 2019-03-10 01:59:23 23.4 23 24.5
003C3CC8 2019-03-10 01:28:09 23.4 23 24.4
003C3CC8 2019-03-10 00:56:55 23.4 23 24.5
003C3CC8 2019-03-10 00:25:40 23.4 23 24.4
003C3CC8 2019-03-09 23:54:25 23.4 23 24.5
003C3CC8 2019-03-09 23:23:11 23.4 23 24.5
003C3CC8 2019-03-09 22:51:57 23.4 23 24.4
003C3CC8 2019-03-09 22:20:42 23.4 23 24.5
003C3CC8 2019-03-09 21:49:27 23.4 23 24.6
003C3CC8 2019-03-09 21:18:13 23.3 23 25
003C3CC8 2019-03-09 20:46:59 23.3 23 25.1
003C3CC8 2019-03-09 20:15:45 23.3 23 25.1
003C3CC8 2019-03-09 19:44:31 23.2 23 25.1
003C3CC8 2019-03-09 19:13:18 23.2 22 25.1
003C3CC8 2019-03-09 18:42:04 23.1 22 25.1
003C3CC8 2019-03-09 18:10:51 23.1 22 25.1
003C3CC8 2019-03-09 17:39:36 23.1 22 25.1
003C3CC8 2019-03-09 17:08:23 23.1 22 25.1
003C3CC8 2019-03-09 16:37:09 23.2 22 25.1
003C3CC8 2019-03-09 16:05:55 23.2 22 25
003C3CC8 2019-03-09 15:34:41 23.2 22 25
003C3CC8 2019-03-09 15:03:27 23.2 22 25
003C3CC8 2019-03-09 14:32:14 23.2 23 25
003C3CC8 2019-03-09 14:00:59 23.2 23 25
003C3CC8 2019-03-09 13:29:45 23.2 23 25.1
003C3CC8 2019-03-09 12:58:34 23.2 23 24.9
003C3CC8 2019-03-09 12:26:42 23.1 22 24.9
003C3CC8 2019-03-09 11:55:28 23.2 22 24.9
003C3CC8 2019-03-09 11:24:14 23.2 23 24.9
003C3CC8 2019-03-09 10:53:00 23.2 23 25.1
003C3CC8 2019-03-09 10:21:44 23.2 23 25.1
003C3CC8 2019-03-09 09:50:31 23.2 23 25
003C3CC8 2019-03-09 09:19:16 23.3 23 25
003C3CC8 2019-03-09 08:48:02 23.3 23 24.7
003C3CC8 2019-03-09 08:16:48 23.3 23 24.6
003C3CC8 2019-03-09 07:45:34 23.4 23 24.7
003C3CC8 2019-03-09 07:14:19 23.4 23 24.7
003C3CC8 2019-03-09 06:43:05 23.5 24 24.8
003C3CC8 2019-03-09 06:11:52 23.6 24 24.8
003C3CC8 2019-03-09 05:40:37 23.6 24 24.8
003C3CC8 2019-03-09 05:09:23 23.7 24 24.8
003C3CC8 2019-03-09 04:38:10 23.7 24 24.8
003C3CC8 2019-03-09 04:06:55 23.7 23 24.9
003C3CC8 2019-03-09 03:35:41 23.7 23 24.9
003C3CC8 2019-03-09 03:04:27 23.7 23 25
003C3CC8 2019-03-09 02:33:12 23.7 24 24.8
003C3CC8 2019-03-09 02:01:57 23.7 24 24.8
003C3CC8 2019-03-09 01:30:43 23.7 24 24.8
003C3CC8 2019-03-09 00:59:27 23.7 24 24.6
003C3CC8 2019-03-09 00:28:12 23.7 24 24.7
003C3CC8 2019-03-08 23:56:57 23.7 25 24.8
003C3CC8 2019-03-08 23:25:42 23.6 24 24.6
003C3CC8 2019-03-08 22:54:28 23.6 23 24.8
003C3CC8 2019-03-08 22:23:13 23.5 23 25.2
003C3CC8 2019-03-08 21:51:59 23.5 23 25.1
003C3CC8 2019-03-08 21:20:45 23.5 23 25.1
003C3CC8 2019-03-08 20:49:30 23.4 23 25.2
003C3CC8 2019-03-08 20:18:15 23.4 23 25.2
003C3CC8 2019-03-08 19:47:01 23.4 23 25
003C3CC8 2019-03-08 19:15:46 23.3 23 25
003C3CC8 2019-03-08 18:44:32 23.3 22 24.9
003C3CC8 2019-03-08 18:13:17 23.3 22 24.9
003C3CC8 2019-03-08 17:42:01 23.3 22 24.9
003C3CC8 2019-03-08 17:10:47 23.3 22 24.9
003C3CC8 2019-03-08 16:39:32 23.4 22 24.8
003C3CC8 2019-03-08 16:08:17 23.5 22 24.8
003C3CC8 2019-03-08 15:37:03 23.6 22 24.8
003C3CC8 2019-03-08 15:05:48 23.6 22 24.8
003C3CC8 2019-03-08 14:34:35 23.6 22 24.8
003C3CC8 2019-03-08 14:03:23 23.6 22 24.8
003C3CC8 2019-03-08 13:32:06 23.5 21 24.8
003C3CC8 2019-03-08 13:00:52 23.6 21 24.7
003C3CC8 2019-03-08 12:29:38 23.6 21 24.7
003C3CC8 2019-03-08 11:58:23 23.6 21 24.9
003C3CC8 2019-03-08 11:27:09 23.6 21 24.8
003C3CC8 2019-03-08 10:55:55 23.6 21 24.8
003C3CC8 2019-03-08 10:24:07 23.7 21 24.7
003C3CC8 2019-03-08 09:52:53 23.7 21 24.3
003C3CC8 2019-03-08 09:21:39 23.7 21 24.3
003C3CC8 2019-03-08 08:50:26 23.7 21 24.4
003C3CC8 2019-03-08 08:19:11 23.8 21 24.4
003C3CC8 2019-03-08 07:47:56 23.8 21 24.3
003C3CC8 2019-03-08 07:16:42 23.8 21 24.4
003C3CC8 2019-03-08 06:45:28 23.9 21 24.5
003C3CC8 2019-03-08 06:14:13 23.9 21 24.4
003C3CC8 2019-03-08 05:42:57 24 21 24.6
003C3CC8 2019-03-08 05:11:43 24 21 24.5
003C3CC8 2019-03-08 04:40:28 24.1 21 24.4
003C3CC8 2019-03-08 04:09:14 24.1 20 24.6
003C3CC8 2019-03-08 03:38:00 24.1 20 24.7
003C3CC8 2019-03-08 03:06:45 24.2 20 24.6
003C3CC8 2019-03-08 02:35:32 24.2 20 24.6
003C3CC8 2019-03-08 02:04:17 24.2 20 24.6
003C3CC8 2019-03-08 01:33:02 24.3 20 24.6
003C3CC8 2019-03-08 01:01:47 24.2 20 24.8
003C3CC8 2019-03-08 00:30:31 24.2 20 24.8
003C3CC8 2019-03-07 23:59:17 24.2 20 24.6
003C3CC8 2019-03-07 23:28:01 24.2 20 24.6
003C3CC8 2019-03-07 22:56:47 24.2 20 24.6
003C3CC8 2019-03-07 22:25:31 24.2 20 24.6
003C3CC8 2019-03-07 21:54:17 24.1 20 24.5
003C3CC8 2019-03-07 21:23:02 24.1 20 24.4
003C3CC8 2019-03-07 20:51:47 24.1 20 24.3
003C3CC8 2019-03-07 20:20:32 24.1 20 24.2
003C3CC8 2019-03-07 19:49:17 24.1 20 24.1
003C3CC8 2019-03-07 19:18:01 24.1 20 24.1
003C3CC8 2019-03-07 18:46:47 24.1 20 24.1
003C3CC8 2019-03-07 18:15:31 24 20 24
003C3CC8 2019-03-07 17:44:16 24.1 20 24.1
003C3CC8 2019-03-07 17:13:01 24.1 20 23.9
003C3CC8 2019-03-07 16:41:46 24.1 20 24
003C3CC8 2019-03-07 16:10:32 24.1 25 24.1
003C3CC8 2019-03-07 15:39:17 24 26 23.8
003C3CC8 2019-03-07 15:08:02 24 22 23.8
003C3CC8 2019-03-07 14:36:47 24 23 24.1
003C3CC8 2019-03-07 14:05:32 24.1 27 23.9
003C3CC8 2019-03-07 13:34:17 24.2 26 23.8
003C3CC8 2019-03-07 13:03:02 24.3 23 23.8
003C3CC8 2019-03-07 12:31:47 24.1 21 23.7
003C3CC8 2019-03-07 12:00:33 23.7 20 23.7
003C3CC8 2019-03-07 11:29:18 23.6 20 23.7
003C3CC8 2019-03-07 10:58:03 23.6 19 23.7
003C3CC8 2019-03-07 10:26:49 23.7 21 23.6
003C3CC8 2019-03-07 09:55:34 23.8 23 23.5
003C3CC8 2019-03-07 09:24:18 23.8 24 23.5
003C3CC8 2019-03-07 08:53:03 23.7 19 23.5
003C3CC8 2019-03-07 08:21:15 23.7 19 23.6
003C3CC8 2019-03-07 07:50:00 23.7 19 23.6
003C3CC8 2019-03-07 07:18:44 23.8 19 23.6
003C3CC8 2019-03-07 06:47:30 23.9 19 23.6
003C3CC8 2019-03-07 06:16:14 23.9 19 23.6
003C3CC8 2019-03-07 05:44:59 24 19 23.6
003C3CC8 2019-03-07 05:13:44 24.1 19 23.7
003C3CC8 2019-03-07 04:42:29 24.2 19 23.7
003C3CC8 2019-03-07 04:11:13 24.3 19 23.6
003C3CC8 2019-03-07 03:39:59 24.5 19 23.7
003C3CC8 2019-03-07 03:08:44 24.4 19 23.7
003C3CC8 2019-03-07 02:37:31 24.5 19 23.6
003C3CC8 2019-03-07 02:06:16 24.5 20 23.7
003C3CC8 2019-03-07 01:35:01 24.5 21 23.9
003C3CC8 2019-03-07 01:03:46 24.5 19 24
003C3CC8 2019-03-07 00:32:31 24.6 19 24
003C3CC8 2019-03-07 00:01:17 24.6 19 24.2
003C3CC8 2019-03-06 23:30:02 24.6 20 24.2
003C3CC8 2019-03-06 22:58:46 24.6 19 24.3
003C3CC8 2019-03-06 22:27:31 24.5 17 24.3
003C3CC8 2019-03-06 21:56:17 24.5 16 24.8
003C3CC8 2019-03-06 21:25:03 24.6 16 24.9
003C3CC8 2019-03-06 20:53:50 24.6 16 25
003C3CC8 2019-03-06 20:22:36 24.5 15 25.1
003C3CC8 2019-03-06 19:51:21 24.6 14 25.2
003C3CC8 2019-03-06 19:20:08 24.7 14 25.3
003C3CC8 2019-03-06 18:48:54 24.8 14 25.4
003C3CC8 2019-03-06 18:17:40 24.8 15 25.4
003C3CC8 2019-03-06 17:46:26 24.4 14 25.5
003C3CC8 2019-03-06 17:15:11 24.2 13 25.5
003C3CC8 2019-03-06 16:43:56 24.3 13 25.4
003C3CC8 2019-03-06 16:12:41 24.2 13 25.3
003C3CC8 2019-03-06 15:41:26 24.2 14 25.3
003C3CC8 2019-03-06 15:10:12 24.2 14 25.2
003C3CC8 2019-03-06 14:38:58 24.1 15 25.1
003C3CC8 2019-03-06 14:07:43 24.1 14 25.2
003C3CC8 2019-03-06 13:36:27 24.1 14 25.3
003C3CC8 2019-03-06 13:05:13 24 9 25.2
003C3CC8 2019-03-06 12:33:59 24 9 25.3
003C3CC8 2019-03-06 12:02:43 24 8 25.2
003C3CC8 2019-03-06 11:31:29 24 8 25.2
003C3CC8 2019-03-06 11:00:16 24.1 9 25.1
003C3CC8 2019-03-06 10:29:01 24.1 9 25
003C3CC8 2019-03-06 09:57:46 24.1 10 25
003C3CC8 2019-03-06 09:26:33 24 10 24.6
003C3CC8 2019-03-06 08:55:18 24 10 24.7
003C3CC8 2019-03-06 08:24:03 24 10 24.6
003C3CC8 2019-03-06 07:52:51 24 10 24.8
003C3CC8 2019-03-06 07:21:34 24 10 24.7
003C3CC8 2019-03-06 06:50:21 24 10 24.6
003C3CC8 2019-03-06 06:18:33 24 10 24.7
003C3CC8 2019-03-06 05:47:19 24 10 24.7
003C3CC8 2019-03-06 05:16:04 24.1 9 24.7
003C3CC8 2019-03-06 04:44:51 24.2 10 24.7
003C3CC8 2019-03-06 04:13:38 24.3 10 24.7
003C3CC8 2019-03-06 03:42:23 24.5 10 24.6
003C3CC8 2019-03-06 03:11:08 24.4 11 24.6
003C3CC8 2019-03-06 02:39:55 24.4 11 24.7
003C3CC8 2019-03-06 02:08:40 24.4 10 24.6
003C3CC8 2019-03-06 01:37:27 24.4 11 24.5
003C3CC8 2019-03-06 01:06:11 24.3 11 24.3
003C3CC8 2019-03-06 00:34:58 24.3 12 24.3
003C3CC8 2019-03-06 00:03:44 24.2 13 24.2
003C3CC8 2019-03-05 23:32:29 24 10 24.3
003C3CC8 2019-03-05 23:01:14 24 10 24.3
003C3CC8 2019-03-05 22:29:59 24 11 24.1
003C3CC8 2019-03-05 21:58:44 23.9 11 24.2
003C3CC8 2019-03-05 21:27:29 24 12 24.2
003C3CC8 2019-03-05 20:56:13 24 12 24
003C3CC8 2019-03-05 20:24:59 24 13 23.9
003C3CC8 2019-03-05 19:53:44 24 13 23.3
003C3CC8 2019-03-05 19:22:28 24 14 23.3
003C3CC8 2019-03-05 18:51:13 24 14 23.3
003C3CC8 2019-03-05 18:19:58 23.9 14 23.3
003C3CC8 2019-03-05 17:48:43 23.9 14 23.3
003C3CC8 2019-03-05 17:17:28 23.7 14 23.3
003C3CC8 2019-03-05 16:46:13 23.6 14 23.2
003C3CC8 2019-03-05 16:14:58 23.7 15 23.3
003C3CC8 2019-03-05 15:43:42 23.3 14 23.2
003C3CC8 2019-03-05 15:12:28 23.6 16 23.7
003C3CC8 2019-03-05 14:41:12 24 18 23.6
003C3CC8 2019-03-05 14:09:57 23.8 19 23.5
003C3CC8 2019-03-05 13:38:42 23.6 19 23.5
003C3CC8 2019-03-05 13:07:27 23.5 18 23.5
003C3CC8 2019-03-05 12:36:11 23.3 19 23.5
003C3CC8 2019-03-05 12:04:56 23.1 18 23.5
003C3CC8 2019-03-05 11:33:40 23.1 15 23.6
003C3CC8 2019-03-05 11:02:25 23.1 15 23.5
003C3CC8 2019-03-05 10:31:11 23.1 15 23.5
003C3CC8 2019-03-05 09:59:56 23.1 15 23.5
003C3CC8 2019-03-05 09:28:41 23.1 16 23.5
003C3CC8 2019-03-05 08:57:27 23.1 16 23.4
003C3CC8 2019-03-05 08:26:13 23.1 17 23.5
003C3CC8 2019-03-05 07:55:00 23.1 17 23.4
003C3CC8 2019-03-05 07:23:46 23.1 17 23.6
003C3CC8 2019-03-05 06:52:31 23.1 18 23.6
003C3CC8 2019-03-05 06:21:16 23.1 18 23.6
003C3CC8 2019-03-05 05:50:02 23.2 18 23.7
003C3CC8 2019-03-05 05:18:47 23.2 18 23.7
003C3CC8 2019-03-05 04:47:33 23.3 18 23.5
003C3CC8 2019-03-05 04:15:46 23.3 18 23.5
003C3CC8 2019-03-05 03:44:32 23.4 18 23.6
003C3CC8 2019-03-05 03:13:17 23.6 18 23.6
003C3CC8 2019-03-05 02:42:03 23.7 19 23.6
003C3CC8 2019-03-05 02:10:48 23.7 19 23.6
003C3CC8 2019-03-05 01:39:33 23.7 19 23.6
003C3CC8 2019-03-05 01:08:16 23.7 19 23.6
003C3CC8 2019-03-05 00:37:01 23.6 19 23.7
003C3CC8 2019-03-05 00:05:45 23.6 19 23.8
003C3CC8 2019-03-04 23:34:31 23.6 19 23.9
003C3CC8 2019-03-04 23:03:15 23.5 19 23.9
003C3CC8 2019-03-04 22:32:01 23.5 20 23.9
003C3CC8 2019-03-04 22:00:45 23.4 19 24
003C3CC8 2019-03-04 21:29:31 23.4 19 24
003C3CC8 2019-03-04 20:58:17 23.4 19 24
003C3CC8 2019-03-04 20:27:02 23.3 19 24.1
003C3CC8 2019-03-04 19:55:49 23.2 19 24.1
003C3CC8 2019-03-04 19:24:34 23.2 19 24.3
003C3CC8 2019-03-04 18:53:20 23.1 19 24.2
003C3CC8 2019-03-04 18:22:06 23.1 19 24.3
003C3CC8 2019-03-04 17:50:51 22.9 18 24.4
003C3CC8 2019-03-04 17:19:37 22.9 17 24.3
003C3CC8 2019-03-04 16:48:21 22.9 18 24.4
003C3CC8 2019-03-04 16:17:05 23 18 24.4
003C3CC8 2019-03-04 15:45:51 23.2 18 24.4
003C3CC8 2019-03-04 15:14:36 23.3 19 24.4
003C3CC8 2019-03-04 14:43:21 23.2 20 24.3
003C3CC8 2019-03-04 14:12:07 23.2 21 24.2
003C3CC8 2019-03-04 13:40:51 23 22 24.2
003C3CC8 2019-03-04 13:09:36 22.9 23 24
003C3CC8 2019-03-04 12:38:22 22.8 22 24
003C3CC8 2019-03-04 12:07:07 22.7 22 23.9
003C3CC8 2019-03-04 11:35:51 22.6 17 23.9
003C3CC8 2019-03-04 11:04:38 22.6 16 23.8
003C3CC8 2019-03-04 10:33:23 22.6 16 23.7
003C3CC8 2019-03-04 10:02:09 22.6 16 23.5
003C3CC8 2019-03-04 09:30:54 22.6 16 23.5
003C3CC8 2019-03-04 08:59:41 22.6 16 23.4
003C3CC8 2019-03-04 08:28:26 22.7 16 23.6
003C3CC8 2019-03-04 07:57:13 22.7 16 23.5
003C3CC8 2019-03-04 07:25:59 22.7 16 23.5
003C3CC8 2019-03-04 06:54:45 22.7 16 23.6
003C3CC8 2019-03-04 06:23:30 22.8 16 23.5
003C3CC8 2019-03-04 05:52:14 22.8 16 23.5
003C3CC8 2019-03-04 05:20:58 22.9 16 23.9
003C3CC8 2019-03-04 04:49:44 23 16 23.9
003C3CC8 2019-03-04 04:18:29 23.1 16 23.9
003C3CC8 2019-03-04 03:47:15 23.3 16 23.9
003C3CC8 2019-03-04 03:16:01 23.3 17 23.9
003C3CC8 2019-03-04 02:44:47 23.3 18 24
003C3CC8 2019-03-04 02:13:00 23.3 18 24.2
003C3CC8 2019-03-04 01:41:47 23.3 19 24.3
003C3CC8 2019-03-04 01:10:33 23.3 19 24.3
003C3CC8 2019-03-04 00:39:20 23.3 20 24.3
003C3CC8 2019-03-04 00:08:05 23.2 18 24.4
003C3CC8 2019-03-03 23:36:53 23.1 17 24.6
003C3CC8 2019-03-03 23:05:40 23.1 18 24.7
003C3CC8 2019-03-03 22:34:25 22.9 17 24.7
003C3CC8 2019-03-03 22:03:10 22.9 16 24.8
003C3CC8 2019-03-03 21:31:56 22.9 16 24.9
003C3CC8 2019-03-03 21:00:42 23 15 24.9
003C3CC8 2019-03-03 20:29:27 23 16 25.1
003C3CC8 2019-03-03 19:58:11 23 16 25
003C3CC8 2019-03-03 19:26:57 23.1 16 25
003C3CC8 2019-03-03 18:55:42 23 18 24.9
003C3CC8 2019-03-03 18:24:29 23 19 25
003C3CC8 2019-03-03 17:53:15 22.7 16 25
003C3CC8 2019-03-03 17:22:02 22.6 14 25
003C3CC8 2019-03-03 16:50:47 22.6 14 24.6
003C3CC8 2019-03-03 16:19:32 22.8 14 24.7
003C3CC8 2019-03-03 15:48:18 22.9 15 24.6
003C3CC8 2019-03-03 15:17:03 23.1 16 24.7
003C3CC8 2019-03-03 14:45:50 23.1 17 24.7
003C3CC8 2019-03-03 14:14:36 23 18 24.7
003C3CC8 2019-03-03 13:43:21 23 20 24.6
003C3CC8 2019-03-03 13:12:07 22.8 14 24.6
003C3CC8 2019-03-03 12:40:53 22.7 14 24.5
003C3CC8 2019-03-03 12:09:40 22.6 13 24.6
003C3CC8 2019-03-03 11:38:25 22.6 12 24.5
003C3CC8 2019-03-03 11:07:11 22.6 12 24.4
003C3CC8 2019-03-03 10:35:57 22.6 12 24.2
003C3CC8 2019-03-03 10:04:43 22.6 13 24.2
003C3CC8 2019-03-03 09:33:29 22.6 13 24.1
003C3CC8 2019-03-03 09:02:14 22.6 13 24
003C3CC8 2019-03-03 08:31:00 22.6 13 24
003C3CC8 2019-03-03 07:59:45 22.6 14 24
003C3CC8 2019-03-03 07:28:31 22.6 14 24
003C3CC8 2019-03-03 06:57:16 22.6 14 24
003C3CC8 2019-03-03 06:26:01 22.7 14 24.1
003C3CC8 2019-03-03 05:54:47 22.7 14 24.1
003C3CC8 2019-03-03 05:23:31 22.8 15 24
003C3CC8 2019-03-03 04:52:16 23 15 23.8
003C3CC8 2019-03-03 04:21:01 23 15 23.7
003C3CC8 2019-03-03 03:49:46 23 16 23.7
003C3CC8 2019-03-03 03:18:32 23 16 23.6
003C3CC8 2019-03-03 02:47:18 23 17 23.4
003C3CC8 2019-03-03 02:16:03 23 17 23.4
003C3CC8 2019-03-03 01:44:48 23 18 23.5
003C3CC8 2019-03-03 01:13:32 23 17 23.5
003C3CC8 2019-03-03 00:42:16 23 18 23.4
003C3CC8 2019-03-03 00:10:28 22.9 18 23.6
003C3CC8 2019-03-02 23:39:12 22.9 18 23.6
003C3CC8 2019-03-02 23:07:56 23 19 23.6
003C3CC8 2019-03-02 22:36:43 23.1 20 23.6
003C3CC8 2019-03-02 22:05:30 23.1 21 23.8
003C3CC8 2019-03-02 21:34:13 23.1 22 23.7
003C3CC8 2019-03-02 21:02:59 23.1 22 23.8
003C3CC8 2019-03-02 20:31:44 23.1 23 23.8
003C3CC8 2019-03-02 20:00:29 23.1 24 23.7
003C3CC8 2019-03-02 19:29:14 23.1 24 23.6
003C3CC8 2019-03-02 18:57:59 23.1 22 23.7
003C3CC8 2019-03-02 18:26:43 23 22 23.7
003C3CC8 2019-03-02 17:55:29 22.9 22 23.7
003C3CC8 2019-03-02 17:24:15 23 22 23.7
003C3CC8 2019-03-02 16:53:01 23 23 23.7
003C3CC8 2019-03-02 16:21:47 23 23 24.4
003C3CC8 2019-03-02 15:50:33 22.9 24 24.5
003C3CC8 2019-03-02 15:19:18 22.9 26 24.6
003C3CC8 2019-03-02 14:48:04 22.9 28 24.8
003C3CC8 2019-03-02 14:16:48 22.8 24 24.8
003C3CC8 2019-03-02 13:45:34 22.8 25 24.6
003C3CC8 2019-03-02 13:14:19 22.7 26 24.6
003C3CC8 2019-03-02 12:43:03 22.5 27 24.6
003C3CC8 2019-03-02 12:11:48 22.3 21 24.7
003C3CC8 2019-03-02 11:40:34 22.3 20 24.8
003C3CC8 2019-03-02 11:09:20 22.3 19 24.8
003C3CC8 2019-03-02 10:38:06 22.3 19 24.7
003C3CC8 2019-03-02 10:06:51 22.3 19 24.7
003C3CC8 2019-03-02 09:35:37 22.3 19 24.7
003C3CC8 2019-03-02 09:04:22 22.3 19 24.7
003C3CC8 2019-03-02 08:33:07 22.4 19 24.7
003C3CC8 2019-03-02 08:01:52 22.4 18 25.1
003C3CC8 2019-03-02 07:30:36 22.4 18 25.2
003C3CC8 2019-03-02 06:59:22 22.4 18 25.6
003C3CC8 2019-03-02 06:28:07 22.5 18 25.6
003C3CC8 2019-03-02 05:56:52 22.5 18 25.6
003C3CC8 2019-03-02 05:25:36 22.5 17 25.6
003C3CC8 2019-03-02 04:54:21 22.6 17 25.5
003C3CC8 2019-03-02 04:23:06 22.7 17 25.4
003C3CC8 2019-03-02 03:51:51 22.9 17 25.1
003C3CC8 2019-03-02 03:20:36 23 16 25
003C3CC8 2019-03-02 02:49:22 23.1 16 25
003C3CC8 2019-03-02 02:18:07 23.1 16 24.8
003C3CC8 2019-03-02 01:46:53 23.1 16 24.8
003C3CC8 2019-03-02 01:15:38 23.1 15 24.9
003C3CC8 2019-03-02 00:44:23 23.1 14 24.9
003C3CC8 2019-03-02 00:13:08 23 13 24.8
003C3CC8 2019-03-01 23:41:53 23 12 24.7
003C3CC8 2019-03-01 23:10:41 23 12 24.8
003C3CC8 2019-03-01 22:39:22 23 12 24.8
003C3CC8 2019-03-01 22:07:33 23 12 25
003C3CC8 2019-03-01 21:36:18 23 12 24.9
003C3CC8 2019-03-01 21:05:02 23 13 24.9
003C3CC8 2019-03-01 20:33:46 23 13 25
003C3CC8 2019-03-01 20:02:30 23.1 13 24.9
003C3CC8 2019-03-01 19:31:15 23 14 24.4
003C3CC8 2019-03-01 18:59:59 22.5 12 24.4
003C3CC8 2019-03-01 18:28:44 22.2 11 23.9
003C3CC8 2019-03-01 17:57:29 22.1 11 23.8
003C3CC8 2019-03-01 17:26:14 22.1 10 23.8
003C3CC8 2019-03-01 16:54:59 22.1 10 23.8
003C3CC8 2019-03-01 16:23:44 22.2 11 23.9
003C3CC8 2019-03-01 15:52:30 22.1 11 24
003C3CC8 2019-03-01 15:21:15 22.1 11 23.9
003C3CC8 2019-03-01 14:50:00 22.1 11 23.9
003C3CC8 2019-03-01 14:18:49 22.1 11 24
003C3CC8 2019-03-01 13:47:30 22.2 11 24.1
003C3CC8 2019-03-01 13:16:16 22.2 12 24
003C3CC8 2019-03-01 12:45:00 22.2 12 24.1
003C3CC8 2019-03-01 12:13:46 22.2 12 24.1
003C3CC8 2019-03-01 11:42:30 22.2 12 24.6
003C3CC8 2019-03-01 11:11:16 22.2 13 24.7
003C3CC8 2019-03-01 10:40:00 22.2 14 24.6
003C3CC8 2019-03-01 10:08:46 22.3 16 24.6
003C3CC8 2019-03-01 09:37:31 22.3 20 24.4
003C3CC8 2019-03-01 09:06:17 22.1 14 24.4
003C3CC8 2019-03-01 08:35:02 22.1 13 24.4
003C3CC8 2019-03-01 08:03:48 22.1 13 24.3
003C3CC8 2019-03-01 07:32:34 22.1 13 24.3
003C3CC8 2019-03-01 07:01:20 22.1 14 24.2
003C3CC8 2019-03-01 06:30:05 22.1 14 24.2
003C3CC8 2019-03-01 05:58:51 22.1 14 24.6
003C3CC8 2019-03-01 05:27:37 22.1 14 24.6
003C3CC8 2019-03-01 04:56:22 22.1 15 24.7
003C3CC8 2019-03-01 04:25:07 22.1 15 24.6
003C3CC8 2019-03-01 03:53:53 22.1 15 24.7
003C3CC8 2019-03-01 03:22:39 22.1 15 24.5
003C3CC8 2019-03-01 02:51:25 22.1 15 24.6
003C3CC8 2019-03-01 02:20:10 22.2 15 24.6
003C3CC8 2019-03-01 01:48:55 22.3 14 24.6
003C3CC8 2019-03-01 01:17:40 22.4 15 24.5
003C3CC8 2019-03-01 00:46:25 22.4 15 24.6
003C3CC8 2019-03-01 00:15:11 22.3 16 24.6
003C3CC8 2019-02-28 23:43:56 22.3 16 24.6
003C3CC8 2019-02-28 23:12:42 22.2 17 24.7
003C3CC8 2019-02-28 22:41:26 22.3 17 24.2
003C3CC8 2019-02-28 22:10:11 22.2 18 24.2
003C3CC8 2019-02-28 21:38:57 22.2 18 24.3
003C3CC8 2019-02-28 21:07:41 22.1 19 24.3
003C3CC8 2019-02-28 20:36:26 22 19 24.3
003C3CC8 2019-02-28 20:04:37 21.8 20 24.5
003C3CC8 2019-02-28 19:33:22 21.6 21 24.6
003C3CC8 2019-02-28 19:02:06 21.5 21 24.5
003C3CC8 2019-02-28 18:30:50 21.6 22 24.7
003C3CC8 2019-02-28 17:59:34 21.6 23 24.6
003C3CC8 2019-02-28 17:28:19 21.7 24 24.1
003C3CC8 2019-02-28 16:57:02 21.7 25 24.3
003C3CC8 2019-02-28 16:25:46 21.7 25 24.2
003C3CC8 2019-02-28 15:54:31 21.7 25 24.2
003C3CC8 2019-02-28 15:23:17 21.7 25 24.1
003C3CC8 2019-02-28 14:52:02 21.7 24 24.2
003C3CC8 2019-02-28 14:20:45 21.7 24 24.2
003C3CC8 2019-02-28 13:49:28 21.8 24 24.3
003C3CC8 2019-02-28 13:18:12 21.8 24 24.4
003C3CC8 2019-02-28 12:46:55 21.8 24 24.4
003C3CC8 2019-02-28 12:15:40 21.8 24 24.3
003C3CC8 2019-02-28 11:44:24 21.9 24 24.3
003C3CC8 2019-02-28 11:13:08 21.9 25 24.2
003C3CC8 2019-02-28 10:41:52 22 26 24.3
003C3CC8 2019-02-28 09:39:20 22 30 24.2
003C3CC8 2019-02-28 09:08:04 21.9 30 24.2
003C3CC8 2019-02-28 08:36:49 21.8 24 24.2
003C3CC8 2019-02-28 08:05:34 21.8 23 24.4
003C3CC8 2019-02-28 07:34:18 21.8 23 24.5
003C3CC8 2019-02-28 07:03:03 21.8 23 24.3
003C3CC8 2019-02-28 06:31:48 21.8 23 24.3
003C3CC8 2019-02-28 06:00:31 21.8 23 24.3
003C3CC8 2019-02-28 05:29:16 21.9 23 24.2
003C3CC8 2019-02-28 04:58:00 21.9 23 24.3
003C3CC8 2019-02-28 04:26:45 21.9 23 24.3
003C3CC8 2019-02-28 03:55:29 22 23 24.2
003C3CC8 2019-02-28 03:24:14 22 23 24.3
003C3CC8 2019-02-28 02:52:58 22 22 24.3
003C3CC8 2019-02-28 02:21:43 22.1 22 24.5
003C3CC8 2019-02-28 01:50:27 22.1 21 24.5
003C3CC8 2019-02-28 01:19:12 22.2 21 24.4
003C3CC8 2019-02-28 00:47:58 22.4 22 24.5
003C3CC8 2019-02-28 00:16:43 22.4 22 24.4
003C3CC8 2019-02-27 23:45:29 22.5 21 24.3
003C3CC8 2019-02-27 23:14:14 22.4 22 24.3
003C3CC8 2019-02-27 22:42:58 22.4 25 24.4
003C3CC8 2019-02-27 22:11:42 22.3 21 24.3
003C3CC8 2019-02-27 21:40:27 22.3 21 24.3
003C3CC8 2019-02-27 21:09:11 22.3 22 24.3
003C3CC8 2019-02-27 20:37:56 22.2 22 24.3
003C3CC8 2019-02-27 20:06:40 22.2 23 24.4
003C3CC8 2019-02-27 19:35:25 22.2 23 24.4
003C3CC8 2019-02-27 19:04:09 22.1 23 24.3
003C3CC8 2019-02-27 18:32:52 21.9 23 24.2
003C3CC8 2019-02-27 18:01:03 21.7 23 24.3
003C3CC8 2019-02-27 17:29:47 21.7 22 24.3
003C3CC8 2019-02-27 16:58:31 21.7 23 24.4
003C3CC8 2019-02-27 16:27:16 21.7 23 24.4
003C3CC8 2019-02-27 15:56:00 21.8 24 24.4
003C3CC8 2019-02-27 15:24:45 21.8 24 24.4
003C3CC8 2019-02-27 14:53:31 21.8 24 24.4
003C3CC8 2019-02-27 14:22:16 21.8 25 24.4
003C3CC8 2019-02-27 13:51:01 21.8 25 24.4
003C3CC8 2019-02-27 13:19:45 21.9 25 24.3
003C3CC8 2019-02-27 12:48:30 21.9 25 24.3
003C3CC8 2019-02-27 12:17:15 21.9 26 24.2
003C3CC8 2019-02-27 11:45:58 21.9 26 24.2
003C3CC8 2019-02-27 11:14:43 22 27 24.3
003C3CC8 2019-02-27 10:43:26 22.1 30 24.2
003C3CC8 2019-02-27 10:12:10 22.1 31 24.2
003C3CC8 2019-02-27 09:40:54 22 26 24.2
003C3CC8 2019-02-27 09:09:39 22 26 24.1
003C3CC8 2019-02-27 08:38:23 21.9 25 24
003C3CC8 2019-02-27 08:07:08 21.9 25 24.1
003C3CC8 2019-02-27 07:35:53 22 26 23.9
003C3CC8 2019-02-27 07:04:38 22 26 23.9
003C3CC8 2019-02-27 06:33:23 22 26 23.8
003C3CC8 2019-02-27 06:02:07 22 26 23.9
003C3CC8 2019-02-27 05:30:52 22 25 24.1
003C3CC8 2019-02-27 04:59:37 22.1 25 23.9
003C3CC8 2019-02-27 04:28:23 22.1 25 23.8
003C3CC8 2019-02-27 03:57:08 22.1 25 23.7
003C3CC8 2019-02-27 03:25:54 22.1 25 23.9
003C3CC8 2019-02-27 02:54:35 22.2 24 24
003C3CC8 2019-02-27 02:23:20 22.2 24 24.1
003C3CC8 2019-02-27 01:52:04 22.4 24 24.4
003C3CC8 2019-02-27 01:20:48 22.5 25 24.5
003C3CC8 2019-02-27 00:49:32 22.6 25 24.5
003C3CC8 2019-02-27 00:18:16 22.6 25 24.6
003C3CC8 2019-02-26 23:47:00 22.6 25 25
003C3CC8 2019-02-26 23:15:44 22.6 25 25.2
003C3CC8 2019-02-26 22:44:29 22.6 25 25.2
003C3CC8 2019-02-26 22:13:13 22.5 25 25.1
003C3CC8 2019-02-26 21:41:58 22.5 25 25.1
003C3CC8 2019-02-26 21:10:43 22.5 25 25.1
003C3CC8 2019-02-26 20:39:27 22.5 25 25.2
003C3CC8 2019-02-26 20:08:12 22.5 25 25.2
003C3CC8 2019-02-26 19:36:56 22.5 25 25.2
003C3CC8 2019-02-26 19:05:41 22 25 25.2
003C3CC8 2019-02-26 18:34:26 21.7 24 25.3
003C3CC8 2019-02-26 18:03:11 21.7 23 25.2
003C3CC8 2019-02-26 17:31:55 21.7 23 25.2
003C3CC8 2019-02-26 17:00:41 21.8 23 25.2
003C3CC8 2019-02-26 16:29:26 21.8 23 25.2
003C3CC8 2019-02-26 15:57:41 21.8 23 25.4
003C3CC8 2019-02-26 15:26:23 21.8 23 25.5
003C3CC8 2019-02-26 14:55:08 21.8 23 25.5
003C3CC8 2019-02-26 14:23:52 21.8 23 25.6
003C3CC8 2019-02-26 13:52:38 21.8 23 25.5
003C3CC8 2019-02-26 13:21:20 21.8 24 25.2
003C3CC8 2019-02-26 12:50:06 21.8 24 25.2
003C3CC8 2019-02-26 12:18:50 21.9 24 25.3
003C3CC8 2019-02-26 11:47:35 21.9 25 25.3
003C3CC8 2019-02-26 11:16:19 21.9 25 24.9
003C3CC8 2019-02-26 10:45:03 21.9 26 24.8
003C3CC8 2019-02-26 10:13:48 22 27 24.8
003C3CC8 2019-02-26 09:42:34 22 28 25
003C3CC8 2019-02-26 09:11:18 21.9 25 25
003C3CC8 2019-02-26 08:40:01 21.9 25 25.1
003C3CC8 2019-02-26 08:08:44 21.9 25 25.1
003C3CC8 2019-02-26 07:37:28 22 25 25.1
003C3CC8 2019-02-26 07:06:13 22 26 25.1
003C3CC8 2019-02-26 06:34:58 22 26 25.1
003C3CC8 2019-02-26 06:03:42 22 26 25
003C3CC8 2019-02-26 05:32:27 22.1 26 25
003C3CC8 2019-02-26 05:01:12 22.1 26 24.9
003C3CC8 2019-02-26 04:29:57 22.1 26 24.9
003C3CC8 2019-02-26 03:58:41 22.2 26 25
003C3CC8 2019-02-26 03:27:26 22.2 25 25
003C3CC8 2019-02-26 02:56:10 22.2 25 24.8
003C3CC8 2019-02-26 02:24:53 22.3 25 24.7
003C3CC8 2019-02-26 01:53:36 22.4 24 24.6
003C3CC8 2019-02-26 01:22:21 22.5 24 24.5
003C3CC8 2019-02-26 00:51:04 22.7 23 24.4
003C3CC8 2019-02-26 00:19:49 22.7 23 24.4
003C3CC8 2019-02-25 23:48:33 22.7 22 24.3
003C3CC8 2019-02-25 23:17:16 22.8 22 24.2
003C3CC8 2019-02-25 22:46:01 22.9 22 24.1
003C3CC8 2019-02-25 22:14:46 22.9 23 23.9
003C3CC8 2019-02-25 21:43:31 23.1 23 23.9
003C3CC8 2019-02-25 21:12:15 23.3 24 23.8
003C3CC8 2019-02-25 20:40:58 23.1 23 23.6
003C3CC8 2019-02-25 20:09:43 22.6 22 23.7
003C3CC8 2019-02-25 19:38:26 22.3 23 23.5
003C3CC8 2019-02-25 19:07:11 21.8 23 23.5
003C3CC8 2019-02-25 18:35:56 21.6 21 23.5
003C3CC8 2019-02-25 18:04:41 21.6 21 23.6
003C3CC8 2019-02-25 17:33:25 21.6 21 23.5
003C3CC8 2019-02-25 17:02:10 21.7 21 23.5
003C3CC8 2019-02-25 16:30:54 21.7 21 23.5
003C3CC8 2019-02-25 15:59:38 21.7 21 23.6
003C3CC8 2019-02-25 15:28:23 21.8 21 23.7
003C3CC8 2019-02-25 14:57:08 21.8 21 23.6
003C3CC8 2019-02-25 14:25:53 21.8 21 23.6
003C3CC8 2019-02-25 13:54:04 21.8 21 23.7
003C3CC8 2019-02-25 13:22:49 21.8 21 23.6
003C3CC8 2019-02-25 12:51:34 21.9 21 23.5
003C3CC8 2019-02-25 12:20:20 21.9 21 23.7
003C3CC8 2019-02-25 11:49:03 22 22 23.9
003C3CC8 2019-02-25 11:17:49 22 22 24.1
003C3CC8 2019-02-25 10:46:35 22 23 24.2
003C3CC8 2019-02-25 10:15:18 22 24 24.3
003C3CC8 2019-02-25 09:44:02 22.1 25 24.4
003C3CC8 2019-02-25 09:12:46 22.2 28 24.5
003C3CC8 2019-02-25 08:41:31 22.1 24 24.5
003C3CC8 2019-02-25 08:10:14 22.1 24 24.6
003C3CC8 2019-02-25 07:38:58 22.1 24 24.8
003C3CC8 2019-02-25 07:07:42 22.1 25 24.8
003C3CC8 2019-02-25 06:36:26 22.2 25 24.8
003C3CC8 2019-02-25 06:05:09 22.2 25 24.8
003C3CC8 2019-02-25 05:33:53 22.3 25 24.7
003C3CC8 2019-02-25 05:02:36 22.3 25 24.6
003C3CC8 2019-02-25 04:31:20 22.4 24 24.5
003C3CC8 2019-02-25 04:00:04 22.5 24 24.4
003C3CC8 2019-02-25 03:28:46 22.7 24 24.3
003C3CC8 2019-02-25 02:57:31 22.8 24 24.4
003C3CC8 2019-02-25 02:26:15 22.8 26 24.4
003C3CC8 2019-02-25 01:54:59 22.8 29 24.5
003C3CC8 2019-02-25 01:23:43 22.9 30 24.5
003C3CC8 2019-02-25 00:52:27 22.9 33 24.5
003C3CC8 2019-02-25 00:21:11 22.9 35 24.5
003C3CC8 2019-02-24 23:49:55 22.9 35 24.5
003C3CC8 2019-02-24 23:18:39 22.9 31 24.3
003C3CC8 2019-02-24 22:47:24 22.9 27 24.1
003C3CC8 2019-02-24 22:16:08 22.9 24 24.2
003C3CC8 2019-02-24 21:44:51 22.9 25 24
003C3CC8 2019-02-24 21:13:35 22.8 25 23.9
003C3CC8 2019-02-24 20:42:20 22.9 25 23.9
003C3CC8 2019-02-24 20:11:05 22.9 25 23.9
003C3CC8 2019-02-24 19:39:49 22.9 26 23.9
003C3CC8 2019-02-24 19:08:32 22.9 27 23.8
003C3CC8 2019-02-24 18:37:16 22.9 27 23.7
003C3CC8 2019-02-24 18:06:02 22.8 27 24.2
003C3CC8 2019-02-24 17:34:45 22.8 29 24.2
003C3CC8 2019-02-24 17:03:31 22.8 28 24.6
003C3CC8 2019-02-24 16:32:13 22.8 29 24.6
003C3CC8 2019-02-24 16:00:57 22.7 29 24.7
003C3CC8 2019-02-24 15:29:43 22.7 30 24.9
003C3CC8 2019-02-24 14:58:25 22.7 30 25
003C3CC8 2019-02-24 14:27:09 22.6 29 25
003C3CC8 2019-02-24 13:55:54 22.6 27 25
003C3CC8 2019-02-24 13:24:37 22.6 28 24.8
003C3CC8 2019-02-24 12:53:20 22.5 27 24.9
003C3CC8 2019-02-24 12:22:03 22.3 26 25
003C3CC8 2019-02-24 11:50:14 22.2 26 25.3
003C3CC8 2019-02-24 11:18:58 22.2 25 25.3
003C3CC8 2019-02-24 10:47:41 22.2 25 25.4
003C3CC8 2019-02-24 10:16:25 22.3 25 25.4
003C3CC8 2019-02-24 09:45:09 22.3 25 25.5
003C3CC8 2019-02-24 09:13:52 22.3 25 25.4
003C3CC8 2019-02-24 08:42:35 22.3 25 25.5
003C3CC8 2019-02-24 08:11:19 22.4 25 25.4
003C3CC8 2019-02-24 07:40:03 22.4 25 25.4
003C3CC8 2019-02-24 07:08:47 22.4 25 25.5
003C3CC8 2019-02-24 06:37:30 22.5 25 25.4
003C3CC8 2019-02-24 06:06:14 22.5 24 25.5
003C3CC8 2019-02-24 05:34:58 22.6 24 25
003C3CC8 2019-02-24 05:03:42 22.7 24 25.1
003C3CC8 2019-02-24 04:32:26 22.9 24 24.7
003C3CC8 2019-02-24 04:01:09 23 24 24.7
003C3CC8 2019-02-24 03:29:53 23 25 24.7
003C3CC8 2019-02-24 02:58:37 22.9 25 24.7
003C3CC8 2019-02-24 02:27:21 22.8 25 24.6
003C3CC8 2019-02-24 01:56:05 22.8 25 24.8
003C3CC8 2019-02-24 01:24:49 23 25 24.8
003C3CC8 2019-02-24 00:53:32 23 24 24.9
003C3CC8 2019-02-24 00:22:18 23 25 24.8
003C3CC8 2019-02-23 23:51:00 22.9 25 24.6
003C3CC8 2019-02-23 23:19:45 23 25 24.5
003C3CC8 2019-02-23 22:48:29 23 25 24.2
003C3CC8 2019-02-23 22:17:12 22.9 25 24.1
003C3CC8 2019-02-23 21:45:55 22.8 25 24
003C3CC8 2019-02-23 21:14:38 22.8 25 24
003C3CC8 2019-02-23 20:43:23 22.8 25 24
003C3CC8 2019-02-23 20:12:06 22.7 25 24
003C3CC8 2019-02-23 19:40:50 22.7 25 24
003C3CC8 2019-02-23 19:09:32 22.7 25 24.1
003C3CC8 2019-02-23 18:38:16 22.6 25 24.1
003C3CC8 2019-02-23 18:07:00 22.5 25 24.1
003C3CC8 2019-02-23 17:35:44 22.5 25 24.2
003C3CC8 2019-02-23 17:04:30 22.5 25 24.1
003C3CC8 2019-02-23 16:33:11 22.5 25 24.2
003C3CC8 2019-02-23 16:01:55 22.5 24 24.1
003C3CC8 2019-02-23 15:30:39 22.5 24 24.1
003C3CC8 2019-02-23 14:59:23 22.5 25 24.2
003C3CC8 2019-02-23 14:28:07 22.6 25 24.2
003C3CC8 2019-02-23 13:56:51 22.5 24 23.9
003C3CC8 2019-02-23 13:25:34 22.5 25 23.9
003C3CC8 2019-02-23 12:54:18 22.4 25 23.8
003C3CC8 2019-02-23 12:23:02 22.4 27 23.8
003C3CC8 2019-02-23 11:51:46 22.3 21 23.7
003C3CC8 2019-02-23 11:20:30 22.4 21 23.7
003C3CC8 2019-02-23 10:49:13 22.4 21 23.9
003C3CC8 2019-02-23 10:17:57 22.4 21 23.9
003C3CC8 2019-02-23 09:46:08 22.4 21 24.1
003C3CC8 2019-02-23 09:14:52 22.4 21 24.1
003C3CC8 2019-02-23 08:43:36 22.5 21 24.2
003C3CC8 2019-02-23 08:12:19 22.5 21 24.1
003C3CC8 2019-02-23 07:41:03 22.5 21 24.2
003C3CC8 2019-02-23 07:09:47 22.6 21 24.1
003C3CC8 2019-02-23 06:38:32 22.6 21 24
003C3CC8 2019-02-23 06:07:17 22.7 21 24
003C3CC8 2019-02-23 05:36:01 22.7 20 23.9
003C3CC8 2019-02-23 05:04:45 22.8 20 23.8
003C3CC8 2019-02-23 04:33:30 22.9 19 23.9
003C3CC8 2019-02-23 04:02:14 23 19 23.8
003C3CC8 2019-02-23 03:30:58 23.2 19 23.9
003C3CC8 2019-02-23 02:59:41 23.2 18 23.8
003C3CC8 2019-02-23 02:28:24 23.2 17 23.9
003C3CC8 2019-02-23 01:57:10 23.2 17 24.4
003C3CC8 2019-02-23 01:25:54 23.2 17 24.5
003C3CC8 2019-02-23 00:54:38 23.2 16 24.6
003C3CC8 2019-02-23 00:23:23 23.2 16 24.5
003C3CC8 2019-02-22 23:52:07 23.2 15 24.5
003C3CC8 2019-02-22 23:20:51 23.2 15 24.6
003C3CC8 2019-02-22 22:49:35 23.1 14 24.7
003C3CC8 2019-02-22 22:18:19 23.1 14 24.7
003C3CC8 2019-02-22 21:47:03 23.1 13 24.7
003C3CC8 2019-02-22 21:15:47 23.1 13 24.7
003C3CC8 2019-02-22 20:44:31 23 13 24.6
003C3CC8 2019-02-22 20:13:16 23 12 24.7
003C3CC8 2019-02-22 19:41:59 23.1 13 24.6
003C3CC8 2019-02-22 19:10:44 23 12 24.7
003C3CC8 2019-02-22 18:39:28 23.1 12 24.7
003C3CC8 2019-02-22 18:08:13 23.1 12 24.8
003C3CC8 2019-02-22 17:36:57 23.2 12 24.7
003C3CC8 2019-02-22 17:05:41 23.2 12 24.7
003C3CC8 2019-02-22 16:34:25 23.2 13 24.6
003C3CC8 2019-02-22 16:03:10 23.2 13 24.6
003C3CC8 2019-02-22 15:31:54 23 14 24.6
003C3CC8 2019-02-22 15:00:40 23 14 24.6
003C3CC8 2019-02-22 14:29:23 23 11 24.6
003C3CC8 2019-02-22 13:58:07 22.9 11 24.6
003C3CC8 2019-02-22 13:26:50 22.9 12 24.6
003C3CC8 2019-02-22 12:55:34 22.8 12 24
003C3CC8 2019-02-22 12:24:19 22.7 12 24
003C3CC8 2019-02-22 11:53:02 22.8 12 23.8
003C3CC8 2019-02-22 11:21:47 22.7 12 23.8
003C3CC8 2019-02-22 10:50:35 22.6 11 23.9
003C3CC8 2019-02-22 10:19:16 22.6 11 23.8
003C3CC8 2019-02-22 09:48:01 22.6 11 23.7
003C3CC8 2019-02-22 09:16:45 22.6 11 23.6
003C3CC8 2019-02-22 08:45:30 22.6 11 23.6
003C3CC8 2019-02-22 08:14:14 22.9 11 23.7
003C3CC8 2019-02-22 08:13:01 22.6 11 23.7
003C3CC8 2019-02-22 07:41:46 22.6 12 23.9
003C3CC8 2019-02-22 07:10:31 22.6 12 23.9
003C3CC8 2019-02-22 06:39:16 22.6 12 23.8
003C3CC8 2019-02-22 06:08:00 22.6 12 23.8
003C3CC8 2019-02-22 05:36:44 22.7 12 23.7
003C3CC8 2019-02-22 05:05:28 22.7 12 23.7
003C3CC8 2019-02-22 04:34:12 22.7 12 23.8
003C3CC8 2019-02-22 04:02:56 22.7 12 23.8
003C3CC8 2019-02-22 03:31:41 22.7 12 23.8
003C3CC8 2019-02-22 03:00:25 22.8 12 23.7
003C3CC8 2019-02-22 02:29:09 22.9 13 23.9
003C3CC8 2019-02-22 01:57:56 22.9 12 23.8
003C3CC8 2019-02-22 01:26:39 22.9 12 23.9
003C3CC8 2019-02-22 00:55:24 22.9 13 23.8
003C3CC8 2019-02-22 00:24:08 22.9 13 23.8
003C3CC8 2019-02-21 23:52:53 22.8 14 23.8
003C3CC8 2019-02-21 23:21:38 22.8 13 23.9
003C3CC8 2019-02-21 22:50:22 22.7 12 24
003C3CC8 2019-02-21 22:19:07 22.7 12 24
003C3CC8 2019-02-21 21:47:52 22.6 12 23.9
003C3CC8 2019-02-21 21:16:37 22.6 12 23.9
003C3CC8 2019-02-21 20:45:22 22.6 12 24
003C3CC8 2019-02-21 20:14:07 22.5 12 24
003C3CC8 2019-02-21 19:42:52 22.4 12 24.1
003C3CC8 2019-02-21 19:11:36 22.4 12 24.1
003C3CC8 2019-02-21 18:40:20 22.3 11 24
003C3CC8 2019-02-21 18:09:04 22.3 10 24
003C3CC8 2019-02-21 17:37:49 22.3 10 23.9
003C3CC8 2019-02-21 17:06:33 22.3 10 23.8
003C3CC8 2019-02-21 16:35:18 22.3 10 23.9
003C3CC8 2019-02-21 16:04:03 22.3 10 24
003C3CC8 2019-02-21 15:32:47 22.3 10 24
003C3CC8 2019-02-21 15:01:31 22.3 10 24.1
003C3CC8 2019-02-21 14:30:16 22.3 10 24.1
003C3CC8 2019-02-21 13:59:00 22.3 11 24.2
003C3CC8 2019-02-21 13:27:44 22.3 11 24.1
003C3CC8 2019-02-21 12:56:28 22.3 12 24.1
003C3CC8 2019-02-21 12:25:12 22.3 12 24.1
003C3CC8 2019-02-21 11:53:56 22.3 12 24.2
003C3CC8 2019-02-21 11:22:41 22.3 13 24.1
003C3CC8 2019-02-21 10:51:25 22.3 13 24.2
003C3CC8 2019-02-21 10:20:09 22.3 15 24.2
003C3CC8 2019-02-21 09:48:53 22.3 18 24.1
003C3CC8 2019-02-21 09:17:36 22.3 13 24
003C3CC8 2019-02-21 08:46:21 22.3 13 24.1
003C3CC8 2019-02-21 08:15:05 22.3 13 24.1
003C3CC8 2019-02-21 07:43:49 22.3 13 24.1
003C3CC8 2019-02-21 07:12:33 22.3 13 24
003C3CC8 2019-02-21 06:41:18 22.5 13 23.8
003C3CC8 2019-02-21 06:40:06 22.3 14 23.7
003C3CC8 2019-02-21 06:08:51 22.3 14 23.5
003C3CC8 2019-02-21 05:37:35 22.2 14 23.3
003C3CC8 2019-02-21 05:06:19 22.3 15 23.3
003C3CC8 2019-02-21 04:35:05 22.3 15 23.4
003C3CC8 2019-02-21 04:03:49 22.3 15 23.4
003C3CC8 2019-02-21 03:32:34 22.3 15 23.4
003C3CC8 2019-02-21 03:01:19 22.3 15 23.2
003C3CC8 2019-02-21 02:30:03 22.4 15 23.2
003C3CC8 2019-02-21 01:58:47 22.4 15 23.3
003C3CC8 2019-02-21 01:27:32 22.4 16 23.2
003C3CC8 2019-02-21 00:56:16 22.4 16 23.1
003C3CC8 2019-02-21 00:25:00 22.4 15 23.2
003C3CC8 2019-02-20 23:53:45 22.4 16 23.2
003C3CC8 2019-02-20 23:22:29 22.3 16 23.2
003C3CC8 2019-02-20 22:51:13 22.3 16 23.2
003C3CC8 2019-02-20 22:19:56 22.3 17 23.1
003C3CC8 2019-02-20 21:48:40 22.2 19 23.2
003C3CC8 2019-02-20 21:17:24 22.1 23 23.2
003C3CC8 2019-02-20 20:46:08 22 17 23.3
003C3CC8 2019-02-20 20:14:53 22 16 23.3
003C3CC8 2019-02-20 19:43:38 21.9 16 23.1
003C3CC8 2019-02-20 19:12:22 21.9 15 23.2
003C3CC8 2019-02-20 18:41:07 21.9 15 23.4
003C3CC8 2019-02-20 18:09:53 21.9 15 23.4
003C3CC8 2019-02-20 17:38:38 21.9 15 23.4
003C3CC8 2019-02-20 17:07:25 21.9 16 23.5
003C3CC8 2019-02-20 16:36:10 21.9 16 23.7
003C3CC8 2019-02-20 16:04:55 21.9 16 23.8
003C3CC8 2019-02-20 15:33:39 21.9 17 23.9
003C3CC8 2019-02-20 15:02:25 21.9 17 23.8
003C3CC8 2019-02-20 14:31:09 21.9 17 23.8